ECMWFFLT1_925_thetae_087.txt.gz
Theta_e
348 351 353 355 358 359 358 360 361 362 361 362 362 360 360 359 359 361 363 366 366 366 367 365 365 364 363 363 362 362 362 361 361 360 359 357 355 355 358 358 356 351 348 351 355 357 357 356 356 357 359 361 360 359 360 361 360 360 360 360 359 357 357
348 349 352 353 355 358 360 360 361 363 361 363 363 361 360 360 361 362 363 366 366 367 366 366 365 364 364 364 363 363 363 362 362 361 360 359 357 357 358 358 357 353 349 350 353 356 357 357 357 357 359 361 360 360 360 361 361 360 359 360 361 358 359
349 350 351 352 353 355 359 361 361 363 361 362 363 362 361 361 362 362 363 365 367 367 367 367 366 365 364 365 364 364 364 363 363 363 362 360 359 358 357 358 357 354 352 350 352 355 356 358 358 357 359 360 360 359 360 360 360 361 360 361 361 360 359
348 350 350 351 352 355 357 360 361 362 361 362 363 363 362 362 362 363 363 365 367 367 367 367 366 365 365 365 365 364 363 362 362 363 362 360 361 359 357 357 357 354 354 352 352 354 355 357 359 359 359 360 359 359 359 359 359 360 361 360 361 359 360
344 347 350 351 349 353 356 358 361 362 361 361 362 363 363 363 363 363 364 365 367 368 367 367 366 365 365 365 363 363 363 362 362 363 363 360 360 359 357 357 357 354 354 355 354 354 355 356 359 360 361 361 359 359 359 360 360 360 360 361 360 359 358
339 341 347 349 349 352 356 358 360 361 360 360 361 364 363 363 364 363 365 365 367 367 367 367 366 365 365 364 362 363 363 363 363 364 364 361 360 360 358 356 356 355 354 355 356 355 356 358 357 358 360 360 359 357 358 359 359 359 360 361 361 360 358
335 338 343 346 348 351 353 355 360 361 360 360 361 362 363 362 363 363 364 365 367 367 367 366 366 365 365 363 363 364 364 364 364 363 364 363 360 360 360 357 356 357 356 356 357 356 358 359 358 357 358 357 356 356 355 357 358 358 359 360 361 361 359
335 337 339 342 346 348 349 351 357 361 360 360 359 362 363 362 363 363 364 365 366 367 367 367 366 365 365 365 363 365 365 364 365 364 364 364 362 361 361 360 358 358 358 357 357 358 357 359 359 357 356 356 356 355 355 356 358 359 358 360 362 362 360
334 338 338 341 341 345 350 350 354 361 361 359 359 361 362 362 362 363 363 365 365 366 366 366 365 365 365 365 364 365 365 364 365 364 364 364 363 362 361 361 361 359 359 358 357 358 359 359 360 358 357 358 356 356 356 356 358 359 359 359 361 362 360
335 337 340 342 342 345 347 347 352 359 362 361 360 361 362 362 362 363 363 364 365 365 365 365 365 364 365 366 365 364 366 365 364 364 363 363 363 361 360 360 361 360 360 359 357 358 360 360 360 359 360 359 358 358 358 358 358 360 360 359 360 362 362
337 342 344 343 344 346 344 347 356 361 364 364 361 360 362 362 363 363 362 364 363 364 364 364 362 364 366 365 364 364 366 366 364 363 364 362 361 361 359 357 360 361 362 360 356 357 360 360 361 361 362 361 361 361 361 360 360 360 360 359 360 361 362
339 344 346 345 346 346 347 355 363 364 367 365 361 360 362 362 362 362 361 363 363 363 364 363 363 363 366 366 364 364 366 366 365 364 363 361 360 360 359 356 358 360 361 360 357 356 359 361 360 361 363 364 362 362 362 363 363 362 361 359 359 360 361
338 342 347 347 349 348 351 362 365 365 366 363 360 360 361 362 362 362 361 362 363 364 363 363 363 364 366 365 363 364 366 366 365 363 362 361 360 359 358 357 356 357 360 361 359 356 357 359 360 360 363 365 364 363 363 365 364 364 364 361 358 360 362
336 339 343 344 347 348 353 359 364 365 363 362 361 359 360 361 361 360 362 362 363 364 363 362 361 364 366 365 364 364 367 367 365 362 361 362 361 359 358 357 355 355 358 360 359 357 355 357 360 360 362 365 365 363 364 365 366 365 366 364 360 359 360
337 335 338 341 346 351 352 356 364 366 364 363 363 360 358 361 361 360 360 361 362 362 362 362 362 364 366 366 365 366 367 367 366 363 363 363 361 359 358 358 356 354 357 359 360 358 356 355 357 359 361 363 365 364 363 365 367 366 366 366 364 360 359
342 339 341 342 346 350 352 354 359 363 366 365 362 360 360 359 360 361 360 361 361 361 361 362 361 363 365 367 366 367 368 369 367 365 364 363 363 362 359 359 358 356 356 360 360 359 356 355 355 358 360 362 364 365 363 363 365 366 366 366 365 363 360
341 342 345 344 346 348 351 352 356 361 365 366 364 360 360 359 360 360 360 360 360 360 360 362 363 364 365 366 368 367 369 370 369 367 365 364 364 363 361 359 359 358 357 360 361 360 358 356 355 356 359 361 363 364 364 363 364 365 365 363 363 364 362
337 341 345 347 348 350 352 350 353 357 360 363 364 361 359 360 360 360 359 360 359 359 360 361 363 364 365 367 368 368 370 371 370 369 367 365 365 365 363 361 360 360 360 360 363 362 360 358 358 357 358 360 362 363 364 364 363 364 364 363 361 361 362
343 346 348 350 351 352 352 348 348 352 357 360 362 361 360 358 359 360 359 360 359 360 359 360 363 364 366 368 368 369 371 371 371 370 368 367 367 366 366 363 362 361 361 362 363 364 362 361 359 359 359 359 360 362 363 363 363 362 363 363 360 357 358
348 348 351 351 352 353 354 353 354 358 361 362 359 360 361 358 357 360 360 358 359 360 359 360 362 364 366 368 368 370 371 372 372 371 370 369 368 368 367 365 364 364 363 363 364 365 364 362 361 362 361 360 361 361 363 363 363 363 362 362 361 358 355
344 344 346 348 351 354 357 359 362 364 366 364 360 359 361 360 358 359 360 359 359 360 359 361 362 364 366 368 370 371 372 372 372 371 372 370 370 370 369 366 365 365 363 363 364 366 367 365 363 363 363 362 361 361 363 364 363 363 363 361 361 359 357
338 339 341 344 348 352 357 360 362 365 367 367 365 360 357 360 359 357 359 359 359 360 360 360 363 365 367 368 370 372 372 372 372 372 373 371 370 370 370 368 368 366 365 363 364 366 367 366 365 365 365 364 362 361 362 364 363 363 363 362 361 359 357
334 335 338 341 345 350 356 360 363 364 366 364 364 360 356 357 358 357 358 359 359 360 360 360 362 365 367 369 369 372 372 372 372 372 372 371 371 371 371 370 369 368 367 365 363 363 366 367 365 365 365 365 364 363 362 362 363 362 362 362 362 360 358
331 333 337 340 344 349 355 360 362 364 363 360 358 357 354 355 358 358 359 359 358 359 360 360 363 365 367 369 369 371 372 371 372 372 371 373 372 371 371 370 369 369 368 366 363 361 363 365 366 365 365 366 365 364 363 362 361 362 361 362 362 360 359
329 332 336 339 341 348 355 360 362 363 363 359 356 355 353 354 358 359 360 359 358 359 360 361 362 366 368 369 369 371 372 370 371 372 372 372 371 370 371 370 370 369 369 366 364 361 360 362 365 365 365 365 364 364 364 362 361 361 362 361 361 360 359
328 331 335 337 341 349 357 359 360 362 361 357 355 355 352 353 357 360 360 359 359 359 360 361 362 366 370 370 369 370 371 371 372 372 371 372 371 370 370 370 369 370 368 366 365 362 360 361 363 364 365 363 362 363 364 364 363 361 361 361 361 360 360
329 331 334 337 343 351 357 360 360 361 360 357 356 354 352 354 358 361 362 361 360 361 360 361 364 367 370 371 369 370 371 371 371 371 371 371 371 370 370 369 368 368 368 367 365 364 362 360 361 362 363 363 361 361 362 364 364 363 362 361 361 361 359
328 331 332 337 344 351 357 360 359 360 360 358 356 354 354 356 360 363 364 363 362 361 360 361 365 368 371 370 369 369 370 371 371 371 371 370 371 369 369 370 369 368 368 368 366 365 364 363 361 361 362 362 361 361 361 363 364 364 364 363 362 361 360
326 328 330 336 344 352 358 360 359 359 360 357 355 356 355 358 362 366 366 364 362 360 361 364 366 369 371 370 368 368 370 370 371 370 369 369 371 369 370 370 369 368 369 368 367 367 366 366 364 363 363 362 362 361 362 363 363 365 363 363 362 361 360
325 327 330 336 344 353 359 361 361 361 359 356 356 357 355 357 364 367 366 364 362 361 363 365 368 371 371 370 368 369 369 370 371 370 368 369 371 370 370 370 369 369 370 369 369 368 368 367 367 365 365 364 362 362 362 363 365 364 363 362 363 361 361
324 326 330 337 344 351 358 362 362 362 361 358 357 358 357 357 362 366 365 364 363 363 365 367 370 372 372 370 369 369 369 369 371 370 368 369 371 371 371 370 369 369 370 369 369 369 368 369 368 368 365 365 364 363 363 363 365 365 364 363 363 362 361
325 327 331 338 342 348 355 362 363 362 363 361 359 359 359 359 361 364 364 365 365 365 365 368 371 373 372 370 369 368 368 369 370 369 368 369 370 371 371 371 370 370 370 370 370 368 369 369 368 368 367 366 365 365 364 364 364 365 366 365 363 362 362
325 328 333 337 340 345 353 361 363 363 363 363 361 360 360 361 362 364 366 367 365 364 368 371 372 372 371 370 369 368 368 368 369 369 368 368 370 371 371 371 371 369 369 370 369 368 368 367 366 367 366 365 365 363 364 365 364 364 366 365 363 362 362
325 330 333 336 339 344 350 359 364 363 364 365 363 363 362 363 364 365 366 367 366 364 369 372 371 371 371 370 368 368 367 367 368 368 368 368 369 370 370 370 369 369 369 369 368 366 366 366 365 364 364 364 364 363 364 365 365 365 366 365 363 362 361
327 331 332 334 339 343 347 355 360 362 363 365 365 364 363 363 364 364 366 366 366 366 370 372 371 371 371 369 368 369 367 368 367 368 368 368 368 368 369 369 369 368 368 368 367 366 365 365 365 364 364 364 363 363 365 366 365 365 366 366 365 363 361
328 331 332 334 337 340 344 353 357 359 362 364 363 364 364 365 366 366 366 366 366 367 370 371 370 370 370 370 369 368 368 367 367 366 368 368 368 368 369 367 367 369 369 369 367 365 365 365 365 364 365 364 363 365 365 366 366 366 365 366 366 365 363
327 330 331 333 335 337 342 350 355 356 359 361 362 363 365 366 367 367 367 365 366 367 369 370 369 370 370 369 368 367 367 366 366 365 367 368 368 369 368 366 365 365 368 369 368 366 364 365 365 366 365 364 366 368 367 366 369 368 366 366 367 366 365
324 328 330 331 332 335 342 348 351 352 354 357 359 362 363 364 365 366 366 367 366 366 369 369 368 368 368 368 367 366 367 367 367 366 367 367 368 369 370 368 364 362 363 366 367 367 365 365 364 366 365 364 368 371 369 366 368 369 366 366 366 365 364

ECMWFFLT1_925_thetae_093.txt.gz
Theta_e
352 351 351 352 355 356 357 357 354 352 352 351 352 353 354 353 354 355 357 356 355 355 356 356 357 357 355 355 355 352 350 350 349 348 349 351 348 345 343 338 343 350 353 353 351 355 359 359 359 360 360 358 357 356 355 355 354 354 355 356 356 357 357
352 350 351 353 354 357 358 357 355 354 354 353 353 354 354 354 355 357 358 358 357 357 356 356 358 357 356 355 355 354 352 349 349 348 349 349 349 350 348 343 341 346 351 353 351 355 358 358 358 359 359 358 356 356 356 356 356 355 356 356 357 357 357
353 351 351 352 355 358 360 358 355 355 354 355 354 354 355 354 356 357 359 359 359 358 357 357 357 358 356 356 355 354 353 351 350 349 347 347 348 350 350 348 344 342 347 352 352 354 357 355 356 358 359 358 357 356 356 357 357 357 358 357 357 359 358
353 352 351 352 354 358 360 358 356 355 355 355 356 355 356 355 356 358 360 361 360 360 360 358 358 358 357 356 354 354 353 351 349 349 347 345 345 349 351 351 348 344 345 350 352 353 354 354 355 357 358 357 357 357 357 358 357 357 358 358 356 358 358
352 352 351 353 355 356 358 357 356 355 355 356 356 356 357 356 356 357 360 361 361 361 361 360 358 358 358 356 355 354 352 351 350 348 347 345 344 348 352 352 351 349 347 349 351 352 352 353 355 356 356 356 358 358 359 359 359 357 359 360 357 356 356
352 353 354 355 356 356 357 356 355 355 354 355 356 357 356 357 357 358 360 362 362 362 362 361 360 359 358 357 355 354 353 351 350 349 347 347 345 346 349 351 353 352 350 350 351 351 352 353 355 356 356 357 358 359 360 360 360 358 358 360 359 358 358
353 355 355 356 356 356 356 356 355 355 356 356 356 358 357 357 358 358 360 362 363 363 363 362 361 360 359 358 356 356 355 353 352 350 349 348 347 346 347 350 353 354 353 353 351 350 353 354 354 355 356 357 359 360 360 360 360 360 359 360 360 359 360
354 356 356 354 355 356 355 355 356 355 356 355 355 358 358 358 359 359 359 362 363 364 364 363 362 361 361 359 358 356 355 354 353 351 350 349 348 348 347 348 352 354 355 355 353 350 353 355 355 355 355 357 359 360 360 360 360 360 360 359 360 360 360
353 355 355 354 353 354 354 354 355 355 356 357 356 358 359 358 358 358 359 362 363 364 364 363 363 362 361 360 360 358 356 355 354 353 352 350 350 349 349 348 350 353 354 356 354 351 351 354 356 355 356 356 358 360 360 359 359 360 361 359 360 359 358
352 353 355 354 353 354 356 354 355 356 356 357 356 358 359 359 359 358 359 362 364 364 365 364 364 363 362 361 360 359 357 356 355 354 354 352 352 351 351 349 350 352 353 355 355 352 349 352 356 356 357 357 357 359 359 359 359 359 360 360 359 359 357
352 353 355 354 352 355 356 354 357 359 358 356 356 357 359 359 360 359 359 361 363 365 365 365 364 364 364 362 362 360 359 357 356 355 355 354 353 353 352 351 351 352 354 354 355 354 350 351 356 357 357 357 357 359 359 359 359 359 359 360 359 359 358
353 353 354 354 354 355 355 355 357 360 358 356 356 357 358 359 360 360 360 360 362 364 366 366 365 365 365 364 363 362 361 359 357 357 356 355 354 354 354 353 353 353 354 354 354 354 351 351 355 356 357 357 358 358 359 359 360 359 359 359 360 359 358
355 354 355 354 354 354 355 356 358 359 359 356 355 356 356 357 358 358 360 361 361 364 365 366 367 365 365 365 364 363 361 361 359 358 357 356 355 355 355 355 355 354 355 355 354 355 352 352 353 355 356 357 357 359 360 359 359 359 358 359 359 359 359
352 353 354 357 360 361 358 355 357 359 357 355 356 355 355 357 358 358 361 361 361 363 365 366 367 366 366 366 365 364 362 362 361 358 358 357 356 356 356 356 357 356 355 356 355 354 354 354 354 355 355 356 357 359 360 359 359 358 358 358 358 359 359
346 347 350 352 358 364 364 362 361 361 358 356 355 354 354 355 358 360 361 362 362 363 365 366 367 366 367 366 365 365 363 362 361 360 359 358 357 357 358 356 357 358 356 356 355 354 354 355 354 355 356 356 357 358 359 359 358 358 359 357 358 358 359
343 344 345 346 349 353 356 359 361 364 363 360 357 358 357 356 359 361 362 363 362 363 365 367 367 366 367 366 366 365 364 362 362 361 360 360 359 358 358 358 357 358 357 356 354 354 354 356 356 356 357 357 358 358 358 359 357 357 356 357 357 357 358
341 341 342 343 344 346 348 350 353 358 362 358 352 354 357 358 359 359 359 361 362 363 365 366 367 368 367 367 367 365 365 363 362 362 361 360 360 359 359 358 357 358 357 355 354 354 354 356 356 357 357 357 359 359 358 358 357 357 356 355 355 356 358
339 339 339 341 342 344 347 347 346 350 355 356 352 352 354 356 359 359 358 357 359 362 364 366 367 368 367 367 367 366 365 364 363 362 361 360 361 359 359 359 357 357 357 356 355 354 354 355 356 357 358 358 359 359 359 358 357 357 356 355 354 354 356
336 336 337 339 340 344 347 347 346 346 348 351 353 353 353 352 356 358 359 358 356 358 363 365 367 368 368 367 367 367 365 364 363 362 362 361 361 360 360 359 358 357 358 357 357 356 355 355 357 358 358 358 359 359 359 359 358 358 357 357 356 354 355
333 335 335 336 337 340 342 343 344 344 344 347 350 352 354 354 354 356 357 358 356 355 361 365 366 367 368 367 367 367 366 365 364 364 363 362 362 361 360 360 359 358 358 359 359 358 357 356 355 358 358 358 359 360 361 360 359 358 359 358 357 356 356
332 333 334 334 336 338 338 340 342 342 343 346 348 351 355 357 357 355 355 357 358 357 361 363 366 367 368 367 367 367 366 366 366 364 363 363 362 362 361 360 361 360 358 360 360 359 359 357 356 357 359 359 359 359 361 361 360 359 360 360 360 359 358
330 331 332 333 334 336 337 338 339 340 342 344 346 349 352 356 359 360 358 355 356 359 362 361 364 367 368 367 367 367 367 366 366 365 364 364 363 363 362 361 360 361 359 359 359 360 360 359 357 357 358 360 360 359 360 361 361 361 361 360 361 361 360
328 329 330 331 332 333 334 336 337 339 342 344 347 349 352 355 360 361 362 360 357 358 362 362 363 365 367 367 368 367 367 367 366 366 365 365 364 364 363 362 361 360 360 359 359 360 360 360 359 358 357 358 359 360 360 361 361 361 361 361 362 362 362
326 328 328 329 330 331 331 333 335 338 341 344 346 348 351 355 359 361 363 362 360 359 360 363 363 364 366 369 368 368 368 367 367 367 366 365 365 364 363 363 361 360 360 360 359 360 360 360 360 358 357 358 359 360 360 360 361 361 361 361 362 361 363
325 326 327 327 328 329 330 332 335 337 339 341 342 345 347 350 355 360 362 363 362 360 359 360 362 363 365 367 368 368 369 368 367 367 367 367 365 364 364 363 362 361 360 360 359 358 359 360 360 360 359 358 358 359 360 361 361 361 362 362 362 362 362
324 324 324 325 325 327 329 331 333 335 336 338 340 343 345 347 351 356 360 362 364 363 360 360 360 362 364 366 368 368 368 369 368 367 367 367 366 365 364 363 363 361 361 360 360 359 359 360 360 360 360 359 358 357 357 359 360 361 362 362 363 362 362
323 322 323 323 324 326 327 329 331 333 334 336 338 340 343 346 349 353 357 361 364 364 362 361 359 360 362 365 368 369 369 369 370 368 368 367 367 366 365 365 364 362 361 360 360 359 359 359 361 361 361 360 360 359 358 358 358 359 360 361 361 363 362
322 320 321 322 323 325 326 327 329 331 333 334 336 338 340 343 346 350 354 359 362 364 365 362 360 359 361 364 367 369 369 370 369 370 369 369 368 367 366 365 364 364 362 361 360 360 360 360 361 362 361 361 361 360 360 359 358 358 359 360 361 361 362
321 321 321 322 322 324 325 326 328 330 332 333 334 336 338 341 344 348 352 358 362 364 365 365 360 359 361 363 366 368 370 370 370 370 370 370 369 369 367 366 365 364 363 362 361 360 359 360 362 363 362 363 363 361 361 361 360 360 359 359 359 360 361
322 322 323 322 322 323 325 326 327 329 331 332 333 334 337 340 344 347 351 357 361 364 366 366 362 360 361 364 366 368 368 370 371 370 371 371 370 369 369 367 366 365 364 363 361 360 359 360 362 364 364 363 364 363 362 362 362 361 360 360 360 360 360
323 324 324 322 321 323 325 326 328 329 330 331 332 334 337 341 345 350 354 359 363 367 368 366 364 363 362 364 366 368 368 370 370 371 371 371 371 371 370 369 367 367 365 363 362 361 359 359 361 363 364 365 365 364 364 363 363 363 362 362 362 360 360
324 325 325 323 321 322 325 326 328 329 330 330 331 334 338 340 344 350 357 364 367 368 368 367 366 363 364 366 367 368 368 370 370 372 372 371 371 372 370 370 369 368 367 365 363 361 360 359 360 361 363 363 364 364 364 363 363 363 362 362 362 362 361
324 325 325 323 322 323 325 327 328 329 330 330 332 334 337 339 341 346 354 364 368 368 368 369 367 365 365 366 367 368 369 370 370 372 372 371 371 372 371 370 370 369 369 367 365 363 361 359 359 359 361 362 362 363 363 364 363 363 363 363 363 363 362
324 325 326 323 321 323 326 327 327 328 329 331 333 334 336 338 339 343 351 362 368 370 370 368 368 367 366 366 368 368 368 370 371 371 372 372 371 372 372 371 371 370 370 368 366 364 363 361 360 359 358 359 359 361 362 362 363 364 363 362 362 362 362
323 326 325 322 320 323 326 326 325 327 329 331 332 334 335 335 337 341 347 354 361 368 372 370 367 368 368 367 368 368 368 369 369 370 371 372 372 371 372 372 371 371 370 369 368 366 364 362 361 360 359 359 358 359 360 361 362 363 362 362 361 361 361
322 325 325 321 321 323 325 324 323 326 329 330 331 332 333 334 335 338 342 346 351 360 370 372 369 368 369 368 369 369 368 369 369 370 371 371 371 371 371 372 371 372 371 370 368 368 366 364 362 361 360 359 358 357 357 358 359 361 361 360 360 360 360
322 325 324 321 322 325 325 323 322 325 328 330 330 330 331 333 333 334 337 341 344 352 364 372 370 368 368 369 369 368 368 368 368 369 369 370 371 370 371 370 370 370 371 370 369 368 367 366 363 362 361 360 359 358 358 357 357 358 360 360 360 360 360
324 326 323 322 323 325 324 322 321 324 328 330 328 328 330 331 331 332 334 336 339 346 357 367 372 371 370 370 369 369 368 369 369 369 369 369 370 370 370 368 366 366 366 368 369 369 369 366 364 363 362 361 361 359 359 358 358 359 359 360 360 361 361

ECMWFFLT1_925_thetae_096.txt.gz
Theta_e
352 354 353 352 352 349 350 350 347 348 348 348 349 347 345 345 346 348 350 351 351 351 352 352 352 351 351 351 350 349 346 347 347 346 345 343 339 342 345 345 347 348 350 351 352 353 355 356 358 357 358 359 356 353 354 355 356 354 354 354 354 354 355
352 354 354 351 353 350 351 350 347 348 348 348 349 347 347 346 346 347 349 350 351 351 353 353 352 352 351 350 350 349 348 347 347 346 346 344 340 341 344 343 343 346 347 349 350 352 354 356 357 357 359 360 357 354 353 354 355 354 354 355 355 355 356
352 352 353 352 353 351 351 350 347 349 348 348 349 348 348 347 347 348 348 350 351 351 353 354 353 353 351 351 351 350 349 347 347 346 346 345 342 340 342 342 341 344 348 348 350 351 353 354 356 357 359 360 359 356 354 355 355 354 353 354 354 355 356
352 353 352 351 353 353 352 350 348 348 348 348 349 349 349 348 348 349 348 349 350 350 352 354 354 353 352 352 351 351 350 348 348 346 345 347 345 341 341 341 341 344 347 349 349 350 351 352 355 358 359 360 359 358 356 354 354 353 353 354 355 355 356
352 352 351 352 352 353 352 351 349 349 349 348 348 349 350 349 349 350 349 349 350 350 351 352 354 354 353 353 352 352 351 349 349 348 346 346 347 345 341 340 339 341 346 349 349 350 350 351 354 357 359 359 359 358 356 354 355 355 354 354 355 355 356
352 351 352 351 351 352 354 352 350 349 348 349 349 350 351 350 350 351 351 351 350 350 351 351 354 354 354 353 353 352 352 351 350 349 348 347 347 347 343 340 338 337 340 346 350 350 350 350 351 355 357 358 359 358 357 355 355 355 355 355 355 355 356
352 351 351 351 351 352 353 352 351 350 350 349 349 350 350 351 352 352 353 353 351 351 351 352 353 354 354 354 354 353 352 352 351 350 350 349 347 348 346 343 342 340 339 343 347 350 350 348 349 352 355 356 358 358 356 356 355 355 356 356 356 355 355
351 351 351 350 350 351 352 354 353 351 351 351 349 351 351 351 352 353 354 354 353 352 352 353 353 353 354 355 354 354 353 352 352 350 350 349 348 348 349 348 346 345 343 342 343 346 347 348 348 350 352 354 357 358 357 356 355 356 356 357 357 355 354
351 352 351 349 350 351 354 354 353 352 353 352 351 351 352 352 353 353 355 355 355 355 354 354 354 354 354 355 355 354 354 352 352 352 351 350 349 348 348 349 349 348 347 344 343 344 345 346 347 350 351 353 356 358 357 356 356 357 358 357 356 356 355
351 349 350 352 351 353 354 353 354 353 353 353 352 353 352 353 353 354 356 356 356 356 355 355 355 354 355 355 354 355 354 353 352 352 352 351 349 348 347 348 349 349 349 347 345 345 344 345 347 348 350 353 356 357 356 356 356 358 359 358 356 355 356
361 356 352 351 351 354 354 355 357 356 353 353 352 354 354 354 354 355 356 358 358 358 357 357 357 356 356 355 355 355 354 354 353 352 352 351 350 349 347 346 347 348 350 350 348 347 345 345 348 350 351 353 354 356 356 356 357 358 359 359 357 355 355
363 363 360 357 354 355 355 356 357 356 354 354 354 354 354 354 355 355 355 357 359 359 359 359 358 358 357 356 356 356 355 354 353 352 352 351 350 349 348 347 346 347 349 351 351 349 348 347 349 352 352 353 354 355 356 356 357 358 359 359 358 357 356
349 351 353 353 353 355 358 359 360 358 353 353 354 354 354 355 355 356 356 357 359 360 360 360 360 359 359 358 358 357 357 355 354 353 352 352 351 349 348 347 347 346 347 349 351 351 351 349 350 351 353 353 353 354 355 356 357 358 359 359 359 359 359
344 343 344 345 346 349 352 355 363 365 358 353 354 353 354 356 356 354 356 358 359 361 361 360 362 360 360 360 359 359 358 356 355 354 353 353 352 351 350 349 348 347 346 348 350 351 352 351 350 351 352 354 355 354 355 355 357 358 359 359 359 360 360
340 340 341 342 343 344 346 347 352 356 353 353 355 354 354 356 356 356 356 357 359 360 361 362 361 362 361 361 360 360 359 358 357 356 354 354 352 352 351 350 349 349 347 347 349 350 351 351 351 350 351 353 354 356 356 356 357 357 358 358 358 358 359
337 337 339 340 341 341 343 343 344 344 345 348 351 354 356 355 357 358 357 357 359 361 361 362 362 362 362 361 361 361 360 360 359 358 356 355 354 354 352 351 350 350 349 348 348 349 350 351 351 351 351 353 354 356 356 356 356 356 356 357 358 359 359
334 334 335 337 338 338 340 341 342 342 343 345 346 348 352 355 357 358 357 358 358 361 362 363 363 363 363 363 363 362 361 361 360 359 358 356 355 355 353 352 352 351 351 351 350 350 351 351 352 351 351 352 353 355 357 357 356 356 356 356 357 358 359
332 333 333 333 334 336 338 338 339 341 342 343 345 346 348 351 354 357 359 359 359 360 362 364 363 364 364 364 364 363 363 362 361 361 360 358 357 356 355 354 353 352 352 352 352 351 352 352 352 352 352 351 352 353 356 356 356 356 356 356 357 358 358
330 330 330 331 332 334 335 335 337 339 340 342 344 345 346 348 352 354 356 358 359 360 362 363 364 364 364 364 364 364 364 363 362 361 360 360 359 357 357 355 354 354 353 353 353 353 352 353 352 352 353 352 353 353 354 354 356 356 356 356 357 357 358
329 329 329 329 331 332 331 332 335 337 338 340 343 345 346 347 349 351 352 354 357 359 360 362 363 364 364 365 365 365 365 364 363 363 361 361 360 359 358 356 355 355 354 354 355 354 354 353 352 353 353 353 353 354 353 354 354 355 355 356 357 358 358
328 328 328 327 328 330 330 331 333 335 336 339 341 343 345 345 346 349 351 353 355 358 359 359 359 360 363 365 365 365 365 365 363 363 362 361 361 360 359 357 357 356 355 355 355 355 354 354 353 353 353 354 354 354 354 354 354 354 355 356 357 357 357
326 326 327 326 326 326 328 330 331 333 335 337 338 340 342 343 343 346 350 353 355 357 356 356 357 358 360 363 366 366 365 365 364 363 362 362 361 360 359 359 358 357 356 356 355 355 355 354 354 354 353 354 355 355 354 355 354 355 356 355 356 357 357
323 322 324 325 325 325 326 328 329 331 333 334 335 337 338 339 342 343 345 349 355 358 357 356 356 356 357 360 364 366 366 365 365 364 363 362 361 361 360 359 359 358 357 357 356 356 356 355 354 354 353 353 354 354 355 356 355 355 355 355 356 356 356
321 321 322 323 323 324 325 326 328 329 331 332 333 335 335 337 340 342 343 346 351 356 358 358 358 357 357 357 361 365 366 365 365 365 363 363 362 361 361 360 359 359 358 357 357 356 356 356 356 354 353 353 354 355 355 355 356 356 356 355 356 357 357
321 320 321 322 322 323 324 325 327 328 329 331 332 332 333 336 338 340 341 344 347 350 354 357 359 360 359 358 360 363 365 366 365 365 364 364 363 362 361 360 359 359 359 358 358 357 356 357 357 355 355 354 354 355 356 356 356 356 356 357 357 357 357
322 321 322 322 322 322 323 325 326 327 329 330 330 331 332 334 336 338 340 342 344 347 349 352 355 358 360 360 361 363 365 366 366 366 365 364 364 363 362 361 360 360 359 359 358 358 357 357 357 357 357 355 355 355 355 356 357 357 358 357 357 358 358
323 323 323 323 322 322 322 324 325 326 328 329 329 330 331 332 334 336 338 340 342 345 347 349 352 355 359 361 362 363 365 367 366 366 365 365 364 363 363 362 361 361 360 359 359 358 358 358 357 358 358 357 356 356 356 356 357 357 358 358 358 359 358
324 323 323 324 323 321 322 324 325 326 327 328 329 330 331 332 334 336 339 340 342 344 346 348 352 355 358 361 362 363 365 367 367 366 366 366 365 364 364 363 362 361 361 360 359 358 358 358 358 358 358 358 357 356 356 356 356 357 357 357 358 359 359
323 324 324 324 324 323 322 323 325 326 327 328 328 330 331 332 335 336 338 339 340 342 344 348 353 357 360 363 364 364 363 365 366 367 366 365 365 365 364 364 363 362 362 360 360 360 358 358 358 357 359 359 358 358 357 357 356 357 357 358 358 359 359
322 323 323 323 324 323 321 322 325 326 326 327 328 330 331 332 334 335 336 337 338 339 342 346 352 358 361 365 365 365 364 364 366 367 366 366 366 365 364 364 363 362 362 361 360 360 359 358 358 357 358 358 358 358 358 357 357 356 357 357 358 358 358
322 322 322 323 324 322 321 322 324 324 325 326 328 330 330 330 332 333 334 334 335 337 340 344 349 355 360 364 365 366 365 364 364 366 367 367 366 366 365 365 364 363 362 362 361 360 359 359 358 357 357 358 359 358 359 358 358 357 357 356 357 357 358
322 322 321 323 324 322 320 322 324 323 323 325 327 329 329 329 330 331 332 332 334 336 339 342 345 349 354 359 363 366 366 364 364 366 367 367 367 366 365 365 364 364 363 363 361 361 359 359 359 358 358 358 359 359 359 358 359 358 358 357 357 356 357
322 321 320 322 324 321 320 323 323 322 322 324 326 327 327 327 328 330 330 331 333 335 336 338 340 343 347 352 359 364 366 365 364 366 367 368 367 367 366 366 365 364 364 363 363 361 360 359 359 358 358 358 359 359 359 359 360 359 359 359 358 358 357
321 319 320 323 324 321 321 323 323 321 321 323 326 326 325 326 327 328 329 331 332 333 334 334 337 340 343 347 355 363 367 365 364 365 367 368 368 368 367 367 366 365 364 364 363 362 361 360 359 358 358 358 359 360 360 360 361 360 360 359 360 359 359
320 319 320 324 323 321 322 324 322 321 320 322 325 326 325 324 325 326 328 329 330 331 331 333 335 338 341 347 356 364 366 365 364 365 366 368 369 368 367 367 367 366 365 364 364 363 363 361 361 359 358 358 358 360 361 361 361 361 360 360 360 360 360
319 319 322 324 323 322 323 323 321 319 320 322 325 325 324 324 324 325 327 328 328 329 330 332 334 337 342 350 358 363 365 365 364 364 366 368 368 368 369 368 367 367 367 366 365 364 363 363 362 361 359 359 358 358 359 360 361 361 361 361 361 361 360
318 320 323 323 322 323 324 322 320 320 320 322 324 325 324 324 324 325 326 327 327 328 329 331 333 337 344 352 357 359 362 365 365 364 366 367 368 368 369 368 368 368 368 367 367 366 365 364 363 362 361 360 359 358 358 358 360 361 361 362 361 362 362
320 323 324 323 322 324 324 322 321 321 322 323 324 324 324 323 323 324 326 326 327 328 329 331 333 337 343 350 354 357 361 363 365 365 365 367 368 369 368 368 367 366 367 368 368 368 366 366 365 364 363 362 360 358 358 358 358 359 360 361 361 361 361

ECMWFFLT1_925_thetae_102.txt.gz
Theta_e
351 350 349 347 346 346 346 345 344 345 345 343 343 343 342 342 343 344 344 344 345 344 345 346 346 347 347 348 348 349 349 349 348 347 347 347 346 347 348 349 349 349 349 349 349 350 350 351 352 353 354 355 355 355 355 355 355 355 354 354 354 354 354
352 350 350 349 347 347 346 345 343 344 344 344 344 342 342 342 342 344 344 344 345 345 345 345 346 346 347 347 348 348 349 348 347 347 347 347 346 346 347 348 349 349 349 349 347 348 349 350 350 351 353 355 355 355 356 355 355 354 354 355 354 354 354
352 351 350 349 348 348 347 345 344 343 344 344 344 343 342 342 342 343 344 345 345 345 345 345 346 346 347 347 348 348 348 348 347 347 346 346 346 346 346 347 349 349 348 348 347 346 347 349 350 349 350 353 355 355 356 356 356 355 354 354 355 354 354
348 351 351 350 349 349 348 346 344 344 344 344 344 344 343 342 342 342 344 345 345 345 345 345 345 346 346 347 347 347 347 347 347 346 346 346 346 345 346 347 347 348 348 348 347 346 346 347 349 350 349 351 353 354 355 355 356 356 355 354 354 354 354
343 348 350 352 350 349 348 346 345 344 344 344 344 344 343 342 342 342 344 345 345 345 345 345 345 346 346 347 347 347 347 347 346 346 346 346 346 345 345 345 346 347 347 347 346 346 345 345 347 349 350 350 351 353 355 356 356 356 356 355 353 354 354
339 343 348 351 350 350 349 346 346 345 344 344 344 344 344 343 342 342 343 344 345 345 345 345 345 346 346 346 347 347 347 347 346 346 346 345 345 345 344 344 345 345 344 344 344 344 344 344 345 347 349 349 350 351 353 355 355 356 357 356 354 353 353
336 338 343 348 349 350 349 347 346 346 345 344 344 344 344 343 342 342 343 344 345 346 345 345 346 346 346 346 347 347 347 347 346 346 346 346 345 345 343 342 343 343 344 343 343 342 343 343 343 345 346 347 349 350 351 353 355 356 356 357 355 352 353
333 335 336 341 346 349 348 349 347 346 346 344 344 345 344 344 343 342 343 344 344 345 345 345 346 346 347 347 347 347 347 347 346 346 346 346 345 345 343 342 340 340 343 344 344 342 342 342 343 344 344 345 347 348 349 351 352 355 356 357 357 353 353
331 332 333 334 339 346 348 348 347 346 347 345 344 345 344 344 343 342 343 343 344 345 345 345 346 346 347 347 347 347 347 347 347 346 346 346 345 345 344 343 340 339 340 343 344 343 341 341 342 344 343 343 345 347 348 349 350 352 354 356 357 356 354
331 331 331 331 332 338 344 347 348 346 346 345 345 345 345 344 343 343 343 343 344 345 345 346 346 346 347 347 347 347 347 348 348 347 347 346 345 345 344 343 341 340 338 340 343 343 342 341 341 343 343 342 344 346 347 349 349 350 351 352 355 357 356
330 330 330 330 330 332 335 339 343 345 347 347 345 345 345 345 344 343 343 343 344 345 345 346 346 346 347 347 348 348 348 348 348 348 348 347 346 345 344 344 342 341 338 338 341 343 342 341 341 342 342 342 343 344 346 347 348 348 349 349 351 353 355
329 329 329 329 329 330 332 334 336 339 342 345 347 346 345 345 345 344 343 343 344 345 345 346 346 346 347 347 348 349 348 349 348 348 348 347 347 347 345 345 344 342 341 339 340 342 342 342 341 341 342 341 342 342 343 345 346 347 348 348 349 349 351
329 328 328 328 328 329 329 331 333 335 337 339 343 346 347 346 345 345 345 344 344 345 345 346 346 347 348 348 348 349 349 349 348 348 349 348 348 347 346 346 345 344 343 342 342 342 343 343 342 341 341 341 341 341 341 343 344 345 346 347 349 349 349
327 327 327 327 328 328 328 329 330 332 334 335 338 341 344 347 347 346 345 344 345 345 345 346 347 347 348 348 349 349 349 349 349 348 349 348 348 348 347 347 346 345 344 343 343 343 343 344 344 343 342 341 341 340 340 342 344 344 345 346 346 348 349
326 326 325 325 326 326 326 327 328 330 332 333 335 337 338 341 345 348 348 346 345 345 345 346 347 347 348 348 349 350 349 349 350 349 349 349 349 348 348 348 347 346 345 344 344 343 343 344 344 344 344 343 342 341 341 342 342 342 343 343 344 345 347
325 325 325 324 325 325 325 326 327 329 331 332 333 334 335 336 338 343 348 348 346 346 346 346 347 347 348 348 349 349 350 350 350 350 350 350 349 349 349 349 348 347 347 346 345 344 344 344 345 345 344 343 343 342 342 342 342 341 341 342 342 342 344
324 325 325 325 324 324 324 325 326 327 329 330 331 333 334 334 335 337 342 347 349 348 347 347 347 347 347 348 348 349 350 350 350 350 351 350 350 350 350 350 349 348 348 347 346 345 345 345 345 345 345 345 344 344 344 344 343 342 342 342 343 343 344
323 324 325 326 325 325 323 323 326 327 328 329 331 332 332 333 334 335 337 341 347 350 350 348 348 348 348 348 348 349 349 350 351 351 351 351 351 351 351 350 350 349 349 348 347 347 346 345 346 346 345 346 346 346 346 345 344 344 343 343 343 343 344
322 323 324 325 326 326 324 323 325 326 327 328 330 331 331 332 333 334 335 339 344 348 352 351 349 349 349 348 349 349 349 350 350 351 351 351 351 351 351 351 351 350 350 349 349 348 347 346 346 345 346 346 347 346 346 346 345 345 345 344 344 344 344
322 323 323 323 325 326 324 324 324 326 327 328 329 330 330 331 332 333 335 339 342 346 351 353 352 351 351 350 350 350 350 350 351 351 351 351 352 351 352 351 351 351 351 350 350 349 348 347 346 346 346 346 346 346 346 346 346 345 345 345 345 344 345
322 323 323 323 324 324 324 324 324 325 326 327 328 329 329 330 331 332 335 338 341 343 348 353 355 353 352 352 352 351 351 351 351 351 352 352 352 352 352 352 352 352 351 351 350 350 349 348 347 347 346 346 346 346 346 346 345 346 346 346 346 346 346
323 322 323 324 324 324 324 323 323 324 325 325 326 327 328 329 330 331 334 337 340 342 345 350 354 355 355 354 354 353 353 353 353 353 353 353 353 353 353 353 352 352 352 351 351 351 350 349 348 348 347 347 346 346 346 346 346 345 346 346 346 347 347
323 323 323 323 323 323 324 323 321 322 324 323 324 325 326 327 329 331 334 336 338 340 342 344 347 350 352 355 356 356 355 355 355 355 355 354 354 354 354 354 353 353 353 352 352 351 351 350 350 349 348 348 347 347 347 347 346 346 346 346 346 347 348
323 323 323 323 322 323 324 323 321 321 322 322 322 323 325 326 328 330 333 335 336 337 338 339 340 343 347 350 354 356 357 358 357 356 356 356 356 356 355 355 355 354 354 353 353 353 352 352 351 351 350 349 348 348 348 347 347 347 346 346 346 347 348
324 322 322 323 322 322 323 323 322 321 321 322 321 322 324 325 327 329 331 333 334 334 335 335 336 339 343 347 351 353 356 358 359 359 358 358 358 357 357 357 356 356 356 355 354 354 353 353 352 352 351 351 350 350 349 349 349 348 348 347 347 347 348
324 323 322 322 321 321 323 323 322 320 321 321 320 321 323 324 326 327 328 330 332 332 332 332 332 335 340 345 350 353 355 356 358 359 360 360 359 359 359 358 358 357 357 356 356 355 355 354 354 353 353 352 352 351 351 350 350 350 349 348 348 348 348
321 322 322 321 321 321 322 323 322 321 321 321 319 319 321 323 325 326 327 328 329 329 329 329 331 333 336 340 345 351 354 356 358 359 360 360 361 360 360 360 359 359 358 358 357 356 356 356 355 354 354 354 353 353 352 352 351 351 350 350 349 349 349
318 321 321 321 321 321 322 323 323 321 321 321 320 319 320 322 325 326 326 327 327 327 327 328 330 331 333 336 341 346 350 353 356 359 361 362 361 361 361 361 360 360 360 359 359 358 357 357 356 356 356 355 354 354 353 353 353 352 351 351 350 350 350
317 319 320 321 321 320 321 323 323 321 321 321 321 319 319 322 324 325 326 326 325 325 326 328 329 330 331 333 337 342 346 348 352 355 358 361 363 362 362 362 362 361 361 360 360 359 358 358 357 357 356 356 355 355 354 354 353 353 352 352 351 351 351
315 317 318 319 320 320 320 322 323 322 321 322 321 319 319 321 323 324 325 324 323 324 326 328 328 329 330 332 335 339 342 344 347 350 353 357 360 362 363 362 362 362 362 361 360 360 359 359 358 358 357 356 356 356 355 355 354 354 353 353 352 352 352
314 316 317 317 319 319 319 321 322 322 322 322 321 320 319 320 322 323 324 323 322 323 324 326 328 329 330 332 334 337 340 342 344 347 350 353 357 360 362 363 362 362 362 361 361 360 360 360 359 358 358 357 357 357 356 356 355 355 354 354 353 353 353
314 315 315 316 317 318 319 320 321 322 322 322 321 320 320 321 322 323 323 322 322 323 323 325 327 329 331 332 333 335 339 341 341 343 348 352 356 359 361 362 363 362 362 362 361 361 360 360 359 359 358 358 357 357 357 357 356 355 355 354 354 354 354
314 314 315 315 316 317 319 320 321 322 322 322 322 320 320 321 322 322 322 322 322 322 323 324 326 328 329 331 332 334 337 339 339 341 345 352 357 360 361 362 363 363 362 362 362 361 361 360 360 359 359 358 358 358 358 357 357 356 356 355 355 354 354
313 314 314 315 316 317 318 319 321 322 322 322 322 321 320 321 322 321 321 321 321 322 322 323 325 326 328 330 331 334 336 338 339 342 346 351 355 357 359 361 362 363 363 362 362 362 361 360 360 360 359 359 359 358 358 357 357 357 356 356 355 355 355
313 314 314 315 316 316 318 319 320 322 322 322 322 321 321 322 322 321 320 320 321 321 322 323 324 325 327 329 331 333 334 336 339 342 345 348 350 351 354 357 360 362 363 363 362 362 362 361 361 360 360 360 359 359 359 358 358 358 358 357 357 356 356
314 314 314 315 315 316 317 318 320 321 322 322 321 321 322 322 322 320 319 320 320 321 321 322 323 324 326 328 329 330 331 333 336 338 342 345 347 348 351 354 358 361 362 363 363 363 362 362 362 361 361 360 360 360 359 359 359 359 358 358 357 357 356
314 314 314 314 315 316 317 318 320 322 322 322 322 322 323 322 321 319 318 319 320 320 320 321 322 323 325 326 327 327 328 330 333 336 340 344 346 348 350 352 356 359 361 362 363 363 363 363 363 362 362 361 361 361 360 360 360 359 358 358 357 357 357
315 314 314 314 315 315 317 319 321 322 322 321 322 322 322 321 320 318 317 318 318 319 320 321 321 322 323 324 325 326 328 329 331 334 336 339 343 346 349 351 354 357 360 361 362 363 363 363 363 363 363 362 362 361 361 361 360 359 359 359 358 357 357

ECMWFFLT1_925_thetae_105.txt.gz
Theta_e
348 348 348 348 348 348 348 351 351 350 351 349 348 347 346 347 347 347 347 346 346 347 347 346 347 347 347 347 345 344 345 346 347 347 347 347 347 347 347 347 347 348 349 350 350 349 350 350 351 352 351 351 353 354 354 354 355 355 355 355 354 354 354
343 344 346 347 347 347 348 350 351 351 351 350 349 348 347 348 348 348 347 345 345 346 346 346 346 347 347 346 346 345 346 347 347 347 348 348 348 347 347 347 347 347 348 349 349 348 349 349 350 351 352 352 353 354 354 355 355 355 355 355 354 354 353
338 339 342 345 347 347 348 349 350 350 350 350 349 348 348 348 347 347 346 345 345 345 346 346 346 346 346 347 346 346 346 347 348 348 348 348 348 347 347 347 347 347 347 348 348 348 348 349 349 350 351 351 352 353 354 354 355 355 355 354 354 355 354
337 337 338 341 346 348 348 349 349 349 349 350 350 348 348 348 347 346 346 346 346 346 346 346 346 347 347 347 347 347 347 347 347 348 348 348 347 347 347 347 347 347 346 347 347 348 348 348 348 349 350 351 351 352 353 355 355 355 356 355 355 355 354
337 337 337 338 341 345 349 350 348 348 348 348 349 349 348 347 347 347 347 347 347 347 346 345 346 347 346 346 347 348 347 347 347 347 347 347 346 346 346 346 347 346 346 346 346 347 348 348 348 347 348 349 350 351 351 353 355 355 355 355 355 356 355
336 336 337 337 338 341 346 349 349 348 347 347 347 348 348 347 347 346 347 348 348 348 347 347 347 347 347 347 347 347 347 347 347 347 347 347 346 346 345 345 345 345 345 346 346 346 347 348 348 347 346 346 348 351 351 351 353 355 355 356 356 356 356
334 335 336 336 337 338 341 348 350 347 347 347 346 347 348 347 346 346 346 348 348 349 348 348 348 348 347 347 347 348 347 346 347 346 347 347 347 346 345 344 343 343 343 344 344 345 346 348 348 347 346 345 346 349 351 350 350 353 354 355 356 356 357
333 334 333 334 335 336 338 344 349 349 348 347 346 347 347 346 346 345 346 347 348 348 348 348 348 348 347 347 347 347 347 347 347 347 347 348 348 346 345 344 342 342 342 342 342 343 344 346 346 345 344 344 344 346 348 348 349 350 352 354 355 356 357
331 332 332 332 333 335 338 340 342 347 349 349 349 347 346 346 346 345 345 346 347 348 348 348 348 348 347 347 347 347 347 348 348 348 348 348 348 347 347 345 344 342 342 342 341 341 341 343 343 342 342 343 343 344 345 346 347 348 349 351 353 354 357
330 331 331 331 332 334 337 338 339 341 343 346 349 349 347 346 346 345 345 345 346 347 348 347 348 349 348 348 348 348 349 349 349 349 349 348 349 348 348 347 346 344 343 343 343 341 338 339 341 342 342 342 342 343 344 344 345 347 347 348 350 351 354
328 329 330 330 331 332 334 335 336 337 339 341 343 346 349 349 347 346 345 345 346 346 347 348 348 349 349 349 349 350 350 350 350 349 349 349 349 348 348 348 347 346 344 344 345 343 340 338 340 342 343 342 342 342 342 343 343 344 346 347 348 348 350
327 328 328 329 329 330 332 333 334 335 336 338 340 342 344 347 349 347 345 345 346 346 346 347 348 349 349 349 349 350 350 351 350 350 349 349 348 348 349 348 348 347 345 344 345 345 343 340 338 338 340 342 342 341 341 342 342 342 344 347 349 348 349
326 326 327 328 328 329 330 332 333 334 334 336 338 339 340 342 345 348 349 347 345 346 346 347 348 349 349 349 349 350 351 351 350 350 350 349 349 348 348 348 348 348 346 345 345 345 345 344 340 335 334 338 341 342 341 341 342 342 342 345 349 349 348
325 325 325 326 327 328 328 329 331 332 333 334 336 337 338 340 341 343 347 349 347 346 346 347 348 348 349 349 350 351 351 351 350 350 350 350 349 348 348 349 348 348 347 346 345 345 345 345 344 338 335 336 339 341 342 342 342 343 342 344 347 349 349
324 323 324 325 326 326 326 327 329 331 332 333 335 336 336 337 339 341 343 346 348 348 347 347 348 347 348 350 350 351 351 350 351 351 351 351 350 348 348 349 348 348 348 347 346 345 345 344 345 344 341 339 339 340 342 343 342 342 343 343 345 347 350
323 323 323 324 325 325 325 326 328 329 330 331 333 334 335 336 337 339 341 343 346 349 349 349 348 347 348 350 351 351 349 349 351 351 351 351 350 349 349 350 350 349 348 347 347 347 346 344 344 345 344 343 342 341 343 343 342 341 341 342 342 344 347
323 322 322 323 324 325 325 325 326 327 329 330 331 332 333 334 335 337 339 341 344 347 349 351 351 348 349 351 351 349 348 349 350 351 351 350 350 351 350 350 351 350 349 348 348 347 347 346 345 345 345 345 345 344 344 343 341 339 340 341 341 342 345
323 323 322 322 324 325 325 325 325 326 327 328 329 330 331 332 334 336 337 340 343 346 348 352 353 351 351 351 351 348 348 350 351 351 351 350 351 351 351 351 351 351 350 349 348 348 347 347 347 346 346 347 347 346 345 343 340 338 339 340 340 341 343
322 323 322 322 323 324 325 325 325 325 326 327 328 328 329 330 332 334 335 338 342 344 347 351 354 353 352 351 351 350 349 351 352 353 352 351 351 351 352 352 352 352 351 350 350 349 348 348 348 348 347 348 348 347 347 346 342 340 339 339 339 340 341
322 323 323 322 323 324 326 327 325 324 325 326 326 326 327 328 330 332 333 337 340 341 344 347 352 356 355 352 351 351 350 351 352 353 354 353 352 352 353 353 353 353 352 352 352 351 349 349 349 349 349 348 348 348 348 347 346 343 342 340 340 341 341
323 322 322 322 323 325 325 327 326 325 325 325 325 325 326 327 328 330 332 335 337 338 340 342 346 350 354 355 354 351 351 352 352 353 354 354 354 354 354 354 354 354 353 353 353 352 351 350 350 350 349 349 349 350 349 349 347 346 346 344 342 343 343
322 322 322 322 323 324 325 326 327 326 325 325 324 323 324 326 328 329 331 333 334 336 336 337 340 343 346 350 353 354 354 353 353 354 354 355 355 355 355 356 355 354 354 354 354 353 353 352 351 351 350 350 350 350 350 350 349 348 347 346 345 345 345
320 321 323 323 323 323 323 325 327 327 326 325 323 322 322 325 327 329 330 331 332 333 334 334 335 337 338 341 345 349 354 355 355 355 355 355 356 356 356 356 356 355 355 355 354 354 354 353 353 352 352 351 351 350 351 351 350 349 348 348 346 345 346
318 319 320 322 323 323 322 323 326 326 325 325 324 321 320 323 326 329 330 330 330 331 332 332 332 332 334 336 338 341 347 354 357 357 356 356 357 356 356 357 356 356 356 355 355 355 354 354 354 353 353 352 352 351 351 351 351 350 349 348 347 346 346
317 317 317 319 321 323 322 323 325 326 325 325 325 322 321 321 325 328 330 329 329 330 330 330 330 330 331 332 334 337 341 348 356 359 357 357 357 356 356 356 357 356 356 356 355 355 355 355 355 355 354 354 353 352 351 352 352 351 350 349 348 347 346
316 316 316 317 319 321 322 323 324 325 325 324 324 323 321 321 324 328 329 328 328 328 328 327 328 329 331 332 333 335 338 342 349 357 359 359 358 358 358 358 357 357 357 357 356 356 356 356 356 356 356 355 355 353 352 352 352 352 351 350 349 348 347
315 315 316 316 317 319 321 322 323 324 324 324 325 324 322 322 325 328 328 328 328 326 324 325 326 327 330 332 333 334 336 338 343 349 356 360 361 359 359 360 359 359 359 358 358 357 358 358 357 357 357 356 356 355 354 354 353 352 352 351 350 349 348
315 315 316 316 317 318 320 320 322 323 323 324 325 324 322 322 325 327 328 328 327 324 322 323 325 326 328 331 333 333 334 336 339 342 347 355 361 362 362 361 361 361 361 361 360 360 360 360 359 358 359 358 358 357 357 356 355 354 353 353 352 351 349
315 316 316 316 316 317 318 319 321 322 323 323 324 324 323 323 325 326 328 328 326 324 323 323 323 324 327 330 332 333 333 334 337 339 341 346 353 358 361 362 362 363 363 363 362 362 361 361 361 360 360 360 359 359 358 357 356 356 354 353 353 352 351
315 315 316 316 316 316 317 318 320 322 323 323 322 323 324 323 324 326 327 327 325 324 324 323 322 323 327 329 331 331 331 333 334 336 338 340 344 348 354 359 361 363 364 364 363 363 363 362 362 362 361 361 361 360 360 359 358 358 356 355 354 354 353
315 316 316 316 316 317 317 318 319 321 323 323 322 323 323 323 323 326 326 325 324 325 324 323 322 323 326 329 330 330 331 332 333 335 337 340 342 344 348 354 358 361 363 364 364 363 363 363 363 363 362 362 362 361 361 361 360 360 359 357 356 355 354
315 316 316 316 317 317 317 318 319 320 322 324 323 323 322 322 322 325 326 323 322 324 325 323 323 324 326 327 328 329 330 332 334 335 337 340 343 344 346 351 356 359 362 364 364 364 364 363 364 363 363 363 363 362 362 362 361 361 360 359 357 356 355
314 315 315 316 317 317 318 318 319 320 321 323 323 323 322 322 322 324 325 322 320 322 324 324 325 326 326 327 327 328 329 332 334 334 336 339 343 345 347 350 353 357 360 363 364 364 365 365 364 363 363 363 363 362 363 363 362 362 362 361 359 357 356
314 315 315 315 316 317 318 318 319 320 321 322 324 324 323 322 322 324 324 322 320 321 323 324 325 326 326 326 327 328 329 331 331 331 333 335 339 342 345 348 350 353 357 361 363 364 365 365 364 364 364 364 364 364 363 363 363 363 363 362 360 358 357
314 314 314 315 316 316 317 317 318 319 320 321 323 324 323 322 323 324 323 321 319 321 322 323 324 325 325 326 327 327 328 329 329 329 330 332 335 338 342 345 347 349 353 356 359 361 363 363 364 364 364 364 365 364 364 365 365 364 363 362 361 360 358
313 314 314 315 315 316 316 317 318 319 320 321 322 323 323 323 323 324 322 319 319 320 321 322 323 324 325 325 326 326 326 327 327 328 329 330 332 335 338 341 344 346 349 351 353 355 358 360 362 364 364 364 365 365 365 365 365 364 363 362 361 360 359
312 313 313 314 315 316 316 317 317 319 320 321 323 324 323 323 324 323 320 318 318 319 320 321 322 323 323 324 324 324 325 325 326 327 328 329 330 331 333 335 338 342 345 348 349 352 355 357 359 361 362 363 364 364 364 364 364 363 362 362 361 360 359
312 313 314 314 315 316 317 317 317 318 319 321 323 324 324 324 323 321 319 317 317 318 319 320 321 322 322 322 323 324 324 325 326 326 327 327 327 328 329 331 334 337 340 343 346 348 351 355 358 360 361 361 362 363 363 364 363 362 362 361 361 360 360

ECMWFFLT1_925_thetae_108.txt.gz
Theta_e
347 348 350 352 353 350 350 354 355 353 352 352 351 351 351 351 352 352 355 357 358 359 360 359 359 359 359 358 357 356 355 354 355 356 356 356 355 355 355 355 355 355 355 355 356 356 357 358 358 358 359 360 359 361 361 359 359 362 362 361 361 361 360
344 345 346 348 349 350 351 354 355 354 353 352 352 352 351 351 352 353 355 357 358 359 360 360 359 359 359 358 358 358 356 354 354 356 355 356 356 356 355 355 354 356 355 354 356 358 358 358 358 358 359 360 358 360 361 361 362 363 363 363 362 361 360
343 344 346 346 346 349 352 354 354 355 354 353 353 353 352 352 352 353 354 357 358 358 359 359 359 358 359 359 359 359 357 354 353 354 354 354 355 354 354 355 354 354 355 354 355 357 356 357 358 358 359 359 358 358 360 361 362 362 364 364 362 362 361
342 343 343 345 346 347 351 354 354 354 354 354 354 353 352 352 352 354 355 356 357 358 358 359 358 358 358 359 359 359 359 356 354 353 352 350 352 353 353 354 354 353 353 353 354 354 354 356 358 358 358 358 358 358 359 360 360 361 363 363 360 361 362
342 342 342 344 345 346 349 353 354 353 353 354 353 353 353 352 352 353 355 355 355 357 357 358 357 357 358 358 358 359 359 357 355 353 352 350 351 353 353 353 353 352 352 354 354 355 355 355 356 358 358 358 358 358 359 360 359 360 362 362 361 361 360
340 342 342 342 343 344 347 351 354 353 353 352 351 352 353 352 352 352 354 354 354 355 356 356 356 356 358 358 357 358 358 358 356 354 353 353 352 354 354 353 352 351 352 353 353 354 356 355 354 355 356 356 356 357 357 358 358 358 360 361 361 360 359
337 339 341 342 342 343 345 350 352 352 352 351 350 352 353 352 352 352 352 353 353 354 355 355 356 355 357 357 357 358 358 358 357 355 354 354 353 354 354 354 353 351 351 352 353 353 354 354 353 354 354 353 353 355 356 357 358 358 359 361 361 361 360
334 336 338 340 340 341 344 348 349 350 353 353 352 353 352 352 352 352 352 352 352 353 353 354 355 355 356 357 357 358 358 357 358 357 355 353 354 354 354 354 354 352 351 351 352 352 352 352 353 353 354 353 352 354 355 357 359 358 358 360 360 360 360
332 334 335 336 337 340 343 345 345 347 349 351 352 354 353 351 351 350 351 351 351 352 353 353 354 355 356 357 357 357 357 357 357 357 356 354 353 353 352 352 353 353 353 351 351 352 351 351 350 352 355 354 353 356 356 357 360 358 357 358 360 360 359
331 332 333 334 335 339 341 342 343 343 345 347 349 351 353 353 352 350 350 350 351 351 351 352 352 354 355 357 357 357 357 357 357 357 356 354 353 352 351 350 351 353 353 351 349 349 351 351 350 351 356 355 354 356 357 357 359 358 356 357 358 358 358
331 331 332 332 333 335 337 340 341 341 341 343 345 348 350 352 353 352 351 349 350 350 351 351 351 352 354 356 356 356 356 357 356 356 356 354 353 352 351 349 349 351 353 352 349 347 350 352 351 352 355 355 352 354 357 357 358 357 355 354 356 357 357
330 331 331 331 332 332 334 337 339 340 339 340 342 344 347 350 351 353 353 352 350 349 350 350 350 351 353 355 356 355 356 357 356 355 355 355 353 352 351 351 349 350 351 352 350 348 348 351 352 352 354 354 352 352 356 357 357 358 357 354 353 355 355
329 330 330 330 331 331 332 333 335 337 337 338 339 341 344 347 349 351 352 353 352 350 349 350 351 351 351 354 354 355 355 356 356 355 354 354 354 353 352 352 350 349 351 352 351 348 347 349 352 353 353 353 352 350 353 357 357 358 359 357 353 354 356
327 327 328 329 330 331 331 330 332 334 335 336 337 338 341 344 346 349 351 352 353 353 350 349 350 351 352 353 354 354 355 355 356 356 354 355 355 354 353 352 351 351 351 352 352 350 348 347 350 353 353 353 352 350 351 355 357 356 358 358 354 353 355
326 326 326 327 328 329 330 330 331 331 332 333 334 335 338 340 343 346 349 351 352 353 354 352 350 350 352 353 354 355 356 356 356 356 356 355 356 356 355 353 353 353 352 353 352 351 349 347 347 350 352 353 353 352 349 351 355 356 356 357 357 353 352
326 325 326 326 326 328 328 329 330 330 330 331 331 332 335 337 339 342 346 349 351 351 354 355 354 352 351 353 354 355 356 357 357 357 357 356 356 356 356 355 354 353 353 354 354 352 351 351 349 348 349 352 354 353 351 350 352 354 351 350 353 354 352
326 326 325 326 326 326 327 328 330 330 330 330 329 330 331 333 337 339 342 346 349 350 352 353 355 354 352 352 354 354 356 358 359 358 358 357 357 357 357 356 355 354 354 354 355 354 353 353 352 350 349 351 353 354 353 351 351 352 349 343 343 348 354
327 327 325 325 326 326 326 328 329 330 330 329 329 328 328 331 334 337 338 342 345 347 350 352 354 355 354 353 353 354 356 359 359 359 359 359 358 358 358 357 356 355 355 355 355 356 355 354 354 353 351 350 351 353 354 352 351 350 348 343 338 339 347
326 326 326 325 325 326 326 328 329 329 329 329 329 328 327 329 332 335 336 339 341 343 346 349 352 354 355 356 354 354 355 358 358 358 358 359 359 358 358 358 357 356 356 356 356 356 356 356 355 355 354 352 351 351 352 353 353 351 348 345 340 337 340
325 326 327 326 325 326 327 328 328 328 329 328 328 327 327 328 331 334 336 336 338 340 341 344 349 351 354 356 356 355 356 357 356 355 357 359 359 359 359 359 358 357 356 356 356 356 357 357 356 356 356 355 353 353 352 352 353 353 350 347 345 341 340
323 323 325 325 326 327 327 327 327 328 329 328 328 327 327 327 330 333 335 336 336 337 338 339 342 345 349 352 354 355 356 358 357 356 357 358 359 359 359 359 359 358 356 356 356 357 358 357 357 357 357 356 356 354 354 353 352 352 351 350 348 346 344
320 321 322 323 325 326 327 326 326 326 328 328 328 326 327 327 329 331 334 336 336 336 336 337 337 339 342 346 348 350 353 355 357 357 357 357 359 359 359 359 359 359 358 356 355 356 358 358 357 357 357 356 356 356 355 355 353 352 352 350 350 349 346
319 319 320 321 322 324 325 325 325 325 326 328 327 326 327 327 328 330 333 335 336 336 335 336 336 336 337 340 342 344 347 350 354 357 358 358 358 358 359 359 359 360 360 358 357 356 356 358 358 358 357 356 357 357 356 356 355 354 353 351 350 350 348
318 318 319 319 319 321 322 323 324 325 325 326 327 327 328 327 327 329 332 333 334 335 334 335 336 335 334 335 337 340 342 345 349 353 357 359 359 358 358 359 358 359 359 359 358 357 356 357 358 358 358 358 357 357 357 357 356 355 354 353 352 351 349
318 318 318 318 318 319 320 321 323 324 324 324 325 327 328 327 326 328 331 332 333 334 333 333 334 334 333 333 335 337 339 341 345 349 352 355 357 357 357 357 358 358 359 359 359 358 357 357 357 358 359 358 358 357 357 357 357 356 355 354 353 352 350
318 318 318 318 318 318 318 319 321 322 323 324 325 326 327 327 326 327 329 330 332 333 333 332 332 333 333 332 333 335 337 338 341 344 347 350 352 353 353 353 354 356 358 358 358 358 358 358 357 358 359 359 359 358 357 357 357 357 356 354 353 353 351
318 318 318 318 319 319 318 318 319 320 321 323 324 324 325 326 327 327 328 328 330 332 331 331 331 332 332 333 334 335 336 337 338 339 342 345 348 350 350 348 349 353 355 354 356 358 359 359 359 359 359 359 360 359 359 359 358 358 357 355 354 353 352
318 319 319 318 319 319 319 319 318 318 319 321 323 324 325 326 327 328 327 328 329 329 329 330 331 331 331 333 335 336 335 335 335 336 339 341 343 346 347 346 347 351 354 353 353 355 355 356 357 360 361 360 360 361 361 360 359 359 358 356 355 354 353
319 319 319 319 319 319 319 319 319 319 319 320 323 324 325 326 327 328 327 328 329 328 328 329 330 331 331 332 335 337 336 335 334 335 337 339 340 343 346 345 344 345 350 353 353 353 354 353 353 356 358 359 360 362 362 362 361 360 358 358 356 355 355
317 318 318 318 319 319 320 320 320 320 320 320 322 324 326 326 327 327 327 328 328 328 328 328 328 329 331 332 333 336 336 336 336 336 337 338 339 342 345 345 343 343 347 350 352 352 353 353 351 350 352 354 357 359 361 363 364 362 360 359 357 356 356
316 317 317 317 318 319 319 320 321 321 321 321 322 324 326 327 327 328 327 328 328 328 327 328 328 329 330 331 333 334 335 336 337 337 338 337 337 341 345 346 346 346 347 350 352 352 352 352 351 351 351 352 354 354 356 360 364 364 362 360 359 358 357
315 316 316 316 317 318 319 319 320 321 321 322 322 323 325 326 327 328 327 328 328 328 327 327 328 329 329 330 331 332 334 336 337 337 336 336 336 339 342 344 346 348 349 350 353 354 354 353 352 351 350 351 352 352 352 355 359 362 364 362 361 360 359
315 315 315 316 316 317 318 319 319 320 321 321 322 322 324 325 326 326 326 327 328 327 327 327 328 328 329 329 329 330 332 335 335 335 335 335 336 337 338 340 343 346 349 350 352 354 355 354 352 350 350 350 350 350 350 352 354 357 362 363 362 360 360
314 315 315 315 316 316 317 318 318 319 320 321 322 322 323 324 325 325 326 326 325 326 326 326 326 327 328 328 329 330 331 333 333 334 334 335 335 336 337 338 339 342 345 347 349 352 353 353 352 351 350 350 350 350 351 352 352 353 357 362 364 362 361
313 313 314 314 315 316 316 317 318 319 319 320 320 322 322 323 324 325 325 324 323 324 325 326 326 326 327 327 328 329 330 331 331 332 333 334 334 335 336 336 336 336 337 338 340 344 346 348 350 351 351 350 351 351 351 351 351 351 353 358 363 364 363
312 313 313 314 314 315 316 317 317 318 319 319 320 321 322 323 324 325 325 323 323 323 323 324 326 326 326 326 327 327 328 328 329 330 332 333 333 334 334 334 333 332 332 332 333 335 338 341 344 347 349 350 351 352 352 353 352 351 352 354 357 361 364
312 313 313 314 314 315 316 316 317 318 318 319 320 321 322 323 323 324 324 324 323 323 322 323 324 325 325 325 325 326 326 326 327 328 330 331 332 333 333 333 333 332 331 331 331 332 334 336 338 341 343 347 350 352 353 355 355 354 353 353 354 357 361
313 313 314 314 315 315 315 316 317 317 318 318 319 320 322 322 323 324 324 324 323 322 322 322 322 323 324 324 324 325 325 326 327 328 328 328 330 331 332 332 332 333 332 331 331 331 332 333 335 338 340 344 349 351 352 355 357 357 356 356 357 359 362

ECMWFFLT1_925_thetae_111.txt.gz
Theta_e
354 354 354 357 359 355 355 356 356 355 354 354 354 352 352 352 351 351 354 359 362 363 363 362 362 362 360 358 356 355 356 356 357 357 356 355 353 352 353 354 354 357 356 356 357 357 357 358 357 357 359 359 363 366 366 364 363 364 365 363 362 363 360
352 352 352 355 356 355 356 356 355 354 355 355 354 354 352 352 352 352 355 359 363 364 364 363 362 363 362 360 358 357 357 355 356 357 355 355 355 353 353 353 352 354 355 354 355 355 356 357 358 358 359 358 359 363 365 365 363 363 365 364 362 363 362
349 351 351 351 353 354 356 355 355 354 354 354 354 354 353 353 353 353 355 359 363 363 364 364 363 362 362 361 359 359 359 356 355 355 354 354 355 353 353 353 352 351 353 354 355 356 355 356 357 357 358 358 357 359 363 365 364 363 365 367 363 363 363
348 349 349 348 350 352 356 357 354 354 355 354 354 354 353 354 354 354 356 359 361 363 364 364 362 361 361 362 360 360 360 357 355 354 352 351 352 352 351 352 352 350 351 352 354 355 354 354 357 357 358 359 358 359 359 360 362 362 365 367 363 362 363
347 348 347 347 348 349 353 356 355 356 357 355 353 354 355 355 355 355 356 358 359 361 362 362 360 359 361 362 359 359 361 360 356 353 352 350 350 352 351 350 351 350 350 351 351 353 354 354 355 357 358 358 358 358 357 358 361 361 364 366 362 360 361
344 346 346 346 346 347 351 355 355 356 356 353 352 355 355 353 355 355 354 357 358 359 361 360 359 359 362 361 358 358 361 361 358 355 353 351 350 351 351 350 350 349 349 350 349 351 354 355 355 355 357 357 356 355 355 357 358 358 361 364 361 360 360
342 343 344 345 345 346 349 353 355 355 356 355 352 353 354 353 354 354 353 356 357 358 360 359 358 360 362 361 359 359 361 362 361 357 354 352 351 350 351 351 351 349 348 349 349 350 353 355 354 354 355 354 353 353 353 355 357 356 358 361 361 361 360
339 341 342 343 343 344 347 351 352 354 355 354 352 353 353 352 353 352 352 354 355 356 357 357 357 359 361 362 360 360 360 361 361 360 356 352 351 350 350 351 352 351 349 348 350 350 351 353 353 353 354 354 353 353 353 354 357 356 356 359 361 361 359
337 339 339 339 341 343 347 348 348 351 353 353 354 355 355 355 355 354 353 352 353 353 353 355 356 356 359 362 362 361 361 360 359 360 358 353 351 350 349 350 353 352 351 349 349 350 350 352 351 351 353 353 353 353 354 354 356 357 357 357 359 361 359
336 337 337 336 338 342 346 346 345 347 349 350 353 355 356 356 355 355 352 351 352 353 352 353 354 355 357 360 361 361 361 360 358 357 356 353 351 350 348 348 350 352 352 349 346 348 350 351 350 351 353 354 354 354 355 355 356 358 357 357 358 360 360
336 336 336 336 336 337 340 343 345 345 345 346 348 351 354 355 354 355 354 352 352 352 353 353 352 353 356 359 361 360 360 361 358 355 355 353 350 349 348 347 347 349 351 350 346 345 348 350 350 350 352 354 354 355 355 356 357 358 357 356 356 358 359
335 335 335 336 335 335 336 339 341 342 342 343 345 347 350 352 353 353 355 355 354 352 352 353 353 353 354 357 359 359 359 361 359 356 354 353 351 348 347 346 345 346 349 350 347 344 344 348 350 350 351 354 355 354 355 357 357 358 358 356 354 356 357
334 334 334 334 334 334 335 337 338 338 338 339 341 344 346 348 350 352 353 354 353 352 353 352 352 353 354 356 356 356 358 360 360 358 354 353 353 349 347 346 344 344 345 347 348 346 343 345 348 349 350 352 355 353 353 356 357 358 359 357 354 353 353
332 332 332 333 333 333 334 335 336 337 336 336 337 339 342 344 346 349 353 353 352 351 352 352 353 354 354 354 355 355 357 358 359 359 357 355 355 352 350 347 346 345 344 344 347 347 345 343 345 349 350 350 352 351 350 353 356 357 358 359 356 352 351
330 330 331 331 332 332 332 333 336 336 335 335 334 335 338 340 341 345 349 352 352 351 351 354 355 355 353 353 354 355 357 358 359 359 359 357 356 355 354 350 348 348 346 344 345 347 346 344 343 346 349 350 351 350 348 349 352 355 357 358 359 354 350
330 329 330 330 331 332 332 333 335 335 334 334 333 333 335 337 339 340 343 347 350 351 351 352 354 355 353 352 352 355 358 359 359 359 359 359 358 358 358 356 352 350 348 347 346 346 346 346 344 344 347 350 352 352 349 346 348 352 354 356 358 356 351
330 330 330 330 330 331 331 333 334 333 333 333 332 332 333 335 338 339 340 342 345 348 350 351 354 355 355 354 352 353 357 359 360 360 359 360 360 359 359 359 357 353 352 350 349 348 348 348 348 345 345 347 350 352 353 348 346 348 351 353 355 356 353
331 331 330 329 330 330 330 331 333 333 333 332 332 332 332 333 336 338 339 340 341 344 347 350 354 353 352 352 352 352 354 356 359 361 361 360 361 360 360 360 359 357 356 354 352 353 352 351 351 350 347 346 346 349 353 352 348 346 347 351 352 352 352
329 330 330 329 330 330 330 330 331 332 333 332 331 331 331 332 334 336 339 340 340 340 342 346 351 352 352 351 351 352 353 353 357 360 362 361 361 361 360 361 361 360 358 356 356 356 356 356 354 354 353 350 347 347 348 351 352 349 347 349 349 349 349
327 328 328 328 329 330 331 330 330 330 332 332 331 330 331 332 332 335 338 339 340 340 340 342 346 350 351 351 350 352 352 353 355 357 359 360 360 361 361 360 361 361 359 358 357 357 358 358 357 357 357 356 353 351 349 349 352 352 350 348 348 349 347
325 326 326 326 327 330 330 329 329 329 330 331 330 330 331 331 331 333 336 337 338 339 340 341 343 345 346 348 350 350 350 351 352 353 355 357 357 359 360 360 360 360 360 358 356 357 358 359 359 359 358 358 357 355 353 351 351 352 353 351 349 348 348
323 323 323 324 324 326 328 327 327 329 329 330 330 329 330 330 329 331 334 335 336 337 338 339 340 342 342 343 345 346 346 348 350 352 353 354 355 356 357 358 359 359 359 358 357 356 357 357 359 359 359 359 359 357 355 354 352 352 353 353 352 350 349
322 321 323 323 322 323 324 324 324 326 327 329 329 329 330 331 329 329 332 333 334 335 337 337 338 339 340 340 340 341 343 345 348 350 352 353 354 356 355 354 355 355 356 357 356 354 353 354 355 357 359 358 358 359 358 356 355 354 352 353 353 353 351
321 321 322 322 321 322 323 322 322 324 325 327 328 328 329 330 330 329 331 331 331 333 335 336 336 336 337 338 339 340 342 344 346 348 349 351 353 354 353 351 351 353 354 354 354 353 353 353 352 351 353 355 356 358 358 357 357 356 355 353 352 353 352
321 321 320 320 321 322 322 322 322 322 323 324 326 327 327 329 330 330 331 331 330 332 334 333 333 334 335 336 336 339 341 342 344 346 347 348 349 350 351 351 350 352 354 354 354 354 355 356 354 351 351 352 353 355 354 356 357 357 357 356 354 353 352
320 320 320 320 321 321 321 321 322 322 322 322 323 325 325 327 329 330 331 331 331 333 333 332 332 333 335 335 336 337 339 341 342 343 343 345 346 347 349 350 350 350 351 352 354 355 355 355 355 355 354 352 353 354 354 354 355 355 357 357 356 355 353
320 320 320 320 321 321 321 321 322 322 322 322 322 323 325 327 328 329 331 330 330 332 332 331 331 332 333 334 335 336 338 339 340 341 341 344 345 344 343 344 345 345 346 348 351 354 356 356 355 356 356 355 353 354 354 355 355 354 355 356 357 356 354
320 320 320 320 320 321 321 321 322 322 322 323 322 322 324 326 327 328 330 330 330 331 331 330 330 331 331 332 333 335 337 338 339 340 341 342 344 343 339 338 339 339 340 343 346 349 354 356 356 357 357 357 355 354 354 355 355 354 354 355 356 356 356
320 320 320 320 320 320 321 321 322 322 323 323 323 324 324 324 326 328 329 330 331 331 330 330 330 330 331 331 332 333 334 336 337 339 340 341 343 343 342 343 342 341 340 342 345 349 352 355 357 357 357 357 357 357 355 355 355 355 355 356 356 355 356
320 319 320 320 320 320 320 321 322 322 323 323 324 325 325 325 326 328 329 331 331 331 331 331 330 330 330 331 331 332 332 333 335 337 339 341 342 343 344 345 346 346 346 346 347 349 351 352 354 356 357 357 358 358 358 356 355 356 355 356 356 355 355
318 318 319 319 319 319 319 320 321 321 322 323 323 324 325 325 326 327 328 330 330 330 330 330 330 330 330 330 331 331 330 331 332 334 338 340 340 342 343 344 346 348 349 348 348 350 351 353 354 356 357 357 357 358 358 358 356 356 356 356 357 356 355
317 317 318 318 318 318 318 318 319 320 321 321 322 323 324 325 325 326 327 328 329 329 329 329 329 330 330 330 329 328 329 330 331 333 335 336 338 340 342 343 345 347 347 348 350 351 353 354 354 356 357 357 356 357 357 357 357 357 356 355 355 356 355
316 316 317 317 317 317 317 317 318 319 319 320 321 322 323 323 325 325 325 326 327 328 328 328 328 328 329 329 329 328 328 330 331 332 333 334 336 338 339 340 343 344 345 347 348 348 347 350 352 354 354 356 356 356 356 356 355 355 354 354 354 354 355
315 315 315 315 315 316 316 317 317 318 319 319 320 321 321 322 323 325 325 325 326 327 327 326 326 327 328 329 329 329 328 329 331 331 331 331 333 334 336 338 340 341 343 344 344 341 338 340 344 346 347 350 352 353 354 354 354 354 354 354 354 354 354
314 314 314 314 314 315 316 317 317 318 318 319 319 320 321 322 322 323 324 325 325 326 326 325 326 326 327 328 329 329 329 329 329 328 329 330 331 332 334 336 336 337 338 339 338 336 334 333 336 338 339 342 345 347 349 352 353 354 354 353 353 353 353
314 313 314 314 314 315 316 316 317 317 318 318 319 320 321 321 322 323 323 324 325 325 325 325 325 325 326 327 328 328 328 328 328 328 329 330 331 332 333 333 333 334 335 336 335 334 332 331 332 333 335 336 338 341 343 345 348 350 351 351 351 352 354
313 314 314 314 315 316 316 316 317 317 318 318 319 319 320 321 322 322 323 324 324 324 324 324 324 324 324 325 326 326 327 327 328 329 330 330 331 331 331 331 331 332 333 334 335 334 333 332 332 333 334 334 335 337 338 340 342 343 345 347 349 351 354
313 314 314 315 315 316 316 316 316 317 317 318 318 319 320 321 321 322 322 323 323 324 324 324 324 323 323 323 324 325 325 326 327 328 328 329 329 330 330 330 331 331 331 333 334 334 334 334 333 333 334 335 336 338 340 341 342 344 345 347 349 353 355

ECMWFFLT1_925_thetae_114.txt.gz
Theta_e
354 357 359 359 357 356 357 359 358 357 356 353 353 353 351 349 349 353 357 359 359 358 357 357 360 362 361 359 358 357 357 357 357 356 356 356 357 358 359 358 359 360 359 359 358 358 357 355 356 358 358 360 361 360 362 362 362 362 363 362 360 359 358
356 357 357 357 357 357 357 359 357 356 356 354 354 352 351 351 350 353 358 360 361 360 359 358 359 361 360 359 358 357 358 358 357 357 356 356 356 355 357 357 357 358 357 357 357 357 357 356 356 356 358 359 361 362 362 361 361 362 362 361 360 362 361
355 356 356 355 356 358 358 359 357 356 355 354 353 352 352 353 351 352 356 360 362 362 361 360 361 361 359 357 356 357 357 358 358 358 357 357 356 354 354 354 354 356 357 356 356 356 357 357 357 357 358 358 359 362 362 360 360 361 362 361 360 362 362
354 355 355 354 356 357 358 359 358 357 355 352 352 352 352 352 352 352 355 359 362 364 363 362 362 362 361 358 357 356 357 357 357 358 356 356 356 354 353 354 353 354 355 355 355 356 356 357 358 358 359 358 358 358 359 360 362 362 362 363 362 361 361
351 354 353 353 354 355 356 358 359 359 355 353 352 352 353 352 353 353 353 356 360 363 363 363 362 362 362 361 359 358 358 358 356 356 356 354 354 354 353 353 353 353 353 354 354 355 355 356 357 358 358 358 358 357 358 361 363 361 362 364 363 361 361
348 352 352 350 351 353 354 356 357 357 356 356 356 355 355 355 355 354 352 356 359 361 361 361 360 359 361 362 360 359 360 360 358 356 354 353 353 354 353 352 353 352 351 352 353 353 354 355 356 358 359 358 358 358 358 360 361 360 361 364 363 361 360
344 347 349 349 351 352 352 354 355 355 356 357 357 357 356 355 355 355 354 356 358 358 359 358 357 356 358 361 359 358 359 361 360 357 355 353 352 353 352 352 352 351 351 351 352 352 353 355 355 357 359 358 358 357 357 358 358 359 360 362 363 361 359
343 344 345 347 350 350 350 351 352 353 355 357 356 356 355 354 355 355 355 356 356 356 357 357 357 355 355 359 359 357 358 360 361 359 356 353 351 351 352 352 351 350 350 350 350 351 353 354 355 356 357 357 356 354 355 356 356 357 359 360 362 362 360
341 342 342 344 346 348 350 349 348 350 351 354 357 357 356 354 354 355 355 356 356 358 357 357 356 354 354 356 358 357 356 359 361 361 358 354 351 351 350 351 351 350 349 350 350 350 351 353 354 355 355 356 355 354 353 354 355 356 357 358 360 361 360
340 341 341 343 344 345 348 347 347 347 347 350 354 357 358 357 356 357 357 356 355 354 354 355 355 354 353 354 356 358 357 358 360 360 359 355 351 351 350 349 350 351 350 349 349 349 350 351 353 354 354 354 355 354 353 354 354 356 356 356 358 360 360
339 339 339 341 341 342 343 343 344 345 345 347 348 351 355 357 357 358 358 357 355 353 354 355 354 353 354 353 355 356 356 356 357 356 358 356 352 350 349 348 348 350 351 350 349 349 349 350 352 353 353 353 354 354 353 353 355 356 357 357 357 358 360
338 338 338 338 339 339 340 341 341 341 342 343 344 345 348 350 354 357 357 357 356 355 356 355 353 353 353 353 355 356 356 357 356 354 354 355 354 351 349 348 346 348 350 351 348 347 348 350 351 352 352 352 353 354 354 354 355 356 357 357 357 357 358
337 337 336 336 337 338 339 339 339 339 339 340 342 343 344 345 348 352 355 357 357 356 356 355 354 353 353 353 355 355 355 356 356 354 353 353 353 351 349 348 346 346 349 351 349 347 345 347 350 351 351 352 353 354 355 355 355 355 357 358 358 357 357
336 336 335 335 336 337 337 337 337 337 337 338 340 342 343 343 343 346 349 353 356 355 355 355 354 353 352 352 352 352 352 353 355 355 353 352 353 352 348 347 346 345 346 348 349 347 345 344 347 350 351 351 353 354 355 356 356 356 357 358 358 357 356
334 334 335 335 335 336 336 336 337 337 336 337 338 340 341 341 342 343 344 346 351 352 352 354 355 353 352 352 351 351 351 351 352 353 353 353 355 355 352 348 345 345 345 347 348 348 346 343 343 347 349 350 351 354 355 355 356 357 357 358 358 357 356
332 332 333 333 334 334 334 335 336 335 335 336 336 338 340 340 341 342 342 343 346 347 350 354 356 355 355 355 354 352 351 351 351 351 351 352 354 356 355 353 351 346 343 344 346 347 347 345 343 343 347 349 350 351 353 354 354 355 356 358 358 358 357
332 332 332 332 333 332 332 334 335 335 334 335 335 336 337 339 341 341 342 342 343 344 347 351 355 356 356 356 355 352 352 351 351 350 350 351 354 355 355 353 352 352 350 347 345 344 346 347 345 343 344 347 349 350 351 352 351 351 353 355 356 357 358
332 333 332 332 332 332 331 332 334 334 334 333 334 335 334 336 339 340 342 342 342 343 344 347 350 352 352 353 353 353 354 353 353 352 351 350 353 354 354 354 352 352 352 353 352 348 346 346 347 346 345 345 347 349 351 352 350 348 349 351 353 354 356
330 331 331 331 331 331 330 331 332 333 333 332 332 333 333 333 336 338 340 340 341 342 342 343 346 346 347 348 349 351 352 352 353 353 351 350 352 353 354 355 354 353 352 351 352 351 351 351 348 347 346 345 345 347 349 351 352 350 347 346 348 351 352
328 328 329 329 330 330 330 330 331 331 332 332 331 332 332 332 332 336 337 338 340 340 341 342 343 343 343 344 344 345 347 347 348 350 351 351 351 353 354 354 354 354 353 353 352 351 352 353 354 353 352 350 349 348 348 349 351 351 350 347 346 347 349
327 326 326 327 328 329 328 327 328 329 330 331 330 330 332 332 331 333 334 335 337 338 339 340 340 340 340 341 342 343 344 345 345 348 350 349 348 351 353 354 354 354 353 354 354 353 352 352 354 355 357 356 355 353 352 352 351 351 351 350 348 347 347
324 324 324 325 326 327 326 325 325 327 328 330 330 329 330 332 331 332 332 332 333 336 337 336 337 338 338 338 339 340 342 344 345 346 347 346 345 348 351 352 352 352 353 354 354 355 355 354 354 354 354 355 355 355 354 354 353 351 351 351 351 349 347
323 323 323 324 324 325 325 324 324 325 325 327 328 328 329 331 331 331 332 331 331 333 335 334 334 336 337 337 338 339 340 343 344 344 344 345 345 346 348 351 351 351 352 353 354 355 355 355 356 355 353 353 353 354 355 355 354 352 351 351 351 351 349
322 323 322 322 324 324 323 323 324 325 324 324 326 325 327 329 331 332 333 331 330 333 334 334 333 334 334 335 336 337 339 341 343 343 342 344 345 345 347 350 351 351 351 352 354 356 356 356 356 355 354 353 352 353 354 354 355 355 353 352 352 352 350
322 322 321 322 323 322 322 323 324 324 323 324 324 324 325 328 330 331 332 332 332 332 334 334 333 333 333 333 334 335 337 339 342 343 342 343 343 341 341 345 347 348 348 348 350 352 355 356 357 357 357 356 355 354 353 353 354 355 354 354 353 353 352
322 321 321 321 322 321 321 323 323 323 323 324 325 324 324 326 328 329 331 332 332 333 333 333 333 333 333 333 333 333 335 336 339 340 341 342 342 339 337 337 338 338 340 342 347 348 349 351 354 356 359 359 359 358 356 353 353 354 355 355 354 354 354
321 322 321 321 321 321 322 322 322 323 323 324 325 325 325 326 326 327 328 330 332 333 333 333 333 333 333 333 333 333 333 334 336 337 339 341 343 342 341 339 337 335 334 336 342 347 348 350 351 354 357 358 359 360 359 358 356 354 354 354 354 355 355
322 321 321 321 321 322 322 322 322 323 324 324 324 325 327 327 327 328 328 329 331 332 332 333 334 333 333 333 333 333 332 332 334 335 336 338 342 343 343 342 342 341 338 336 339 344 347 349 351 353 355 356 357 359 360 361 360 359 357 355 354 354 354
321 321 321 321 321 321 321 321 322 322 323 323 324 325 326 327 328 328 328 329 330 331 332 332 332 333 333 333 332 332 332 331 332 332 333 337 341 342 342 342 343 343 343 343 344 346 346 347 349 352 355 356 357 358 360 360 360 360 360 358 355 354 353
320 320 320 320 320 321 320 320 321 321 321 322 323 324 325 326 327 328 328 328 329 329 331 331 331 331 332 332 331 332 331 330 330 331 333 337 338 338 338 341 343 344 345 346 347 347 347 347 349 352 355 356 357 358 359 360 360 360 361 360 358 356 355
319 319 319 319 319 319 319 319 319 320 320 321 322 322 323 324 325 326 327 327 327 328 328 329 330 330 331 331 331 331 330 329 329 331 333 333 334 335 338 340 342 344 346 347 347 347 349 350 351 351 352 354 356 357 357 358 359 359 359 359 359 358 357
318 318 318 318 318 318 318 318 318 319 320 320 320 321 322 322 323 324 325 326 327 327 327 327 329 329 329 329 330 330 329 330 329 330 332 332 332 334 335 336 338 340 343 346 346 346 347 346 345 345 346 348 350 352 354 356 357 358 358 359 358 358 357
317 317 317 317 317 317 317 318 318 318 319 319 320 320 321 321 322 323 323 324 326 326 326 327 328 328 328 328 328 328 329 330 330 331 331 331 330 330 331 332 334 336 339 342 342 343 343 342 341 342 342 342 343 345 348 352 354 356 357 357 356 356 356
316 316 316 316 316 317 317 317 317 318 319 319 319 320 320 321 321 322 323 324 324 325 326 327 327 327 327 327 327 328 328 329 330 330 330 329 330 330 331 332 333 334 336 336 337 339 339 339 339 338 337 338 339 341 345 348 350 353 355 356 356 356 355
316 315 315 316 316 316 316 317 317 318 318 319 319 319 320 320 321 322 322 323 323 324 326 327 327 326 326 326 326 327 328 328 328 329 329 329 330 330 331 332 332 333 333 332 332 333 334 335 336 335 334 334 335 337 340 343 345 348 352 354 355 355 354
315 315 315 315 316 316 316 317 317 318 318 318 319 319 320 320 320 321 322 322 323 324 325 325 326 325 325 325 325 325 326 327 327 327 328 329 330 330 331 331 331 331 332 330 330 330 331 332 333 333 333 334 333 333 335 336 338 340 342 344 346 347 347
314 314 315 315 316 316 316 317 317 317 317 318 318 319 320 321 321 321 321 322 322 323 324 325 325 325 325 324 324 325 326 326 326 327 327 328 329 329 330 330 330 330 331 331 330 330 330 330 330 331 333 334 334 333 334 334 335 336 337 339 341 342 342
313 314 314 315 315 316 316 317 317 317 317 317 318 319 320 321 322 322 322 321 322 323 324 324 325 325 326 325 326 326 325 324 325 325 326 326 327 328 328 329 329 329 330 330 330 330 329 329 329 331 334 335 335 334 333 333 334 335 336 338 340 342 343

ECMWFFLT1_925_thetae_117.txt.gz
Theta_e
360 361 364 365 364 365 363 358 356 354 352 352 350 342 342 348 351 355 356 355 358 356 356 359 357 354 356 357 357 354 351 352 354 355 356 356 356 357 358 359 359 357 356 357 357 357 356 355 357 358 356 358 359 358 358 357 358 359 359 358 357 356 354
360 361 361 361 362 363 360 357 356 355 353 353 352 348 347 349 350 353 355 354 356 357 356 359 359 357 356 356 357 355 352 353 354 355 356 357 356 356 358 358 360 359 357 357 357 357 356 356 356 356 356 358 359 358 359 359 359 360 360 359 358 356 355
359 362 363 362 362 364 361 357 355 355 355 354 354 352 350 352 351 352 354 354 355 356 356 358 360 360 358 357 356 356 354 354 355 355 355 357 357 357 359 358 358 359 359 358 358 357 357 357 356 355 355 357 359 359 360 360 360 361 362 361 359 358 357
356 359 362 362 362 362 361 357 355 356 355 355 355 353 351 351 352 354 355 354 355 357 356 356 359 361 361 359 358 357 356 355 356 356 354 355 356 357 358 358 357 358 359 358 358 358 358 357 356 355 355 356 359 360 361 361 360 360 361 361 359 359 359
355 357 358 359 359 359 359 358 358 357 355 354 352 352 353 352 352 354 358 357 355 356 355 355 357 359 360 360 359 358 357 356 357 357 356 355 356 355 356 356 355 356 356 356 357 357 357 356 357 356 356 356 358 359 361 360 359 358 359 361 359 359 360
355 357 356 355 355 355 354 353 356 357 355 353 351 351 352 352 351 352 358 360 358 358 357 356 356 358 359 360 359 358 357 357 357 357 357 356 356 355 355 354 354 354 354 355 355 355 355 356 357 357 358 358 357 358 359 358 359 359 359 362 361 359 360
349 352 353 353 352 350 349 349 352 356 356 355 354 354 353 353 353 351 354 360 361 361 360 359 359 359 360 360 358 356 356 355 356 356 356 357 356 355 355 353 353 353 353 353 354 354 355 356 356 356 357 358 358 358 358 357 359 361 360 361 362 360 361
345 347 349 350 349 347 347 347 349 352 356 356 356 356 355 354 354 354 353 356 360 362 363 362 361 360 361 361 359 357 356 356 355 355 355 356 355 355 355 354 353 353 352 353 352 352 353 355 356 355 356 357 357 358 358 358 358 358 358 360 360 359 360
344 344 344 345 345 345 345 345 345 347 350 352 354 355 355 354 354 353 351 352 355 357 358 360 361 360 359 360 360 359 359 358 357 356 356 355 355 354 354 354 353 352 352 352 351 351 352 353 354 355 355 356 357 357 357 358 358 356 357 359 359 358 359
342 341 341 341 341 343 342 342 343 344 345 347 348 350 352 353 351 350 350 349 349 350 351 354 357 356 357 357 359 360 359 359 359 359 358 356 354 353 352 352 353 352 351 351 351 351 351 352 352 354 355 356 357 357 355 356 357 356 356 357 358 357 357
340 340 341 340 340 340 340 340 341 342 343 344 345 346 348 349 350 350 350 351 350 350 350 351 350 352 354 354 356 357 357 357 359 359 359 358 356 353 352 350 350 351 351 351 350 350 350 351 351 352 354 355 356 356 355 354 355 355 355 355 356 357 357
338 339 340 339 339 339 338 339 340 341 342 343 344 345 345 346 348 348 349 351 352 352 352 353 351 351 353 353 354 355 356 356 357 357 357 357 356 354 352 351 350 350 350 350 349 350 350 350 350 351 353 353 354 355 354 354 354 355 355 355 355 357 357
337 337 338 338 339 338 338 338 339 340 341 342 344 344 343 344 345 345 347 349 351 352 353 355 353 351 351 353 355 355 355 356 356 356 355 354 354 353 351 352 351 349 349 350 349 349 349 349 349 350 351 353 353 353 353 353 353 354 354 355 356 356 357
337 336 337 337 337 338 338 337 337 338 339 342 343 343 342 342 342 343 344 345 347 349 351 352 353 352 351 353 354 354 353 354 354 355 354 354 353 353 351 351 352 351 349 349 350 350 348 348 349 349 350 351 352 352 352 352 353 353 353 354 356 357 357
336 335 335 336 336 337 337 337 337 337 337 339 341 341 342 342 342 342 343 344 346 348 350 351 353 353 352 352 353 353 352 352 352 352 353 354 354 353 353 351 351 352 350 348 349 350 348 347 347 348 349 350 351 352 351 351 352 352 352 353 353 356 357
334 334 333 333 334 334 335 335 337 337 337 337 339 340 341 342 343 343 343 344 345 347 348 349 351 353 353 353 353 354 354 352 351 351 351 353 353 353 353 352 352 352 350 348 347 347 348 348 347 348 348 349 350 351 352 352 351 352 352 353 353 353 355
333 333 332 332 332 332 333 334 335 335 335 335 336 337 339 341 342 342 343 344 344 344 344 344 346 347 348 348 348 350 352 352 351 351 351 351 352 353 353 352 353 352 351 349 347 345 345 346 347 348 349 349 349 349 351 351 351 351 352 353 354 353 354
334 333 332 331 332 332 332 331 332 334 333 333 333 334 335 337 338 341 343 343 343 343 342 341 343 343 343 343 343 344 348 350 350 351 351 351 352 353 353 353 353 353 350 349 348 347 345 344 344 346 348 350 350 349 350 350 350 350 351 352 354 354 354
331 332 331 330 330 331 330 330 330 332 332 331 332 332 332 333 334 337 340 340 338 339 339 339 341 342 342 342 341 342 346 348 348 348 349 351 352 352 353 353 354 354 353 352 351 351 348 346 344 343 346 350 351 350 349 349 349 349 349 350 352 353 353
329 331 331 329 329 329 327 327 328 330 330 330 331 331 331 332 331 332 336 337 335 335 337 337 338 339 340 341 341 341 341 342 345 345 345 346 349 350 351 353 353 353 353 354 353 352 351 349 347 345 346 350 353 354 353 351 350 350 349 349 350 350 350
329 330 330 330 330 328 325 325 326 328 329 327 328 330 331 332 331 330 332 334 334 334 334 335 336 336 337 339 340 342 340 337 340 343 343 343 344 345 347 349 352 352 352 353 353 353 353 352 350 349 348 349 352 354 355 354 353 352 350 349 350 350 349
326 327 328 328 328 326 324 324 326 327 326 323 325 329 331 332 332 331 331 333 334 333 333 333 333 334 335 336 337 340 342 340 339 340 340 340 343 345 347 348 349 350 351 352 353 354 354 353 352 351 351 351 351 353 354 355 355 354 353 351 350 349 349
324 325 325 325 324 324 324 324 325 325 324 323 325 329 330 331 331 331 332 332 333 333 332 332 333 332 332 334 334 336 341 342 341 340 338 336 338 343 346 347 349 349 349 351 352 354 355 355 355 354 353 353 353 353 353 354 354 355 354 353 353 351 349
321 322 323 322 322 323 323 323 324 324 324 324 326 327 326 327 328 330 331 332 333 333 332 332 333 331 331 332 333 334 336 338 339 340 340 338 335 337 339 339 342 343 341 342 346 350 353 355 355 355 356 356 356 355 354 354 354 354 354 354 354 354 353
321 321 321 320 321 323 323 323 323 324 324 325 326 326 326 326 327 327 329 331 333 333 333 333 333 332 331 332 333 332 332 334 335 337 341 342 340 339 339 336 336 336 335 334 338 343 348 350 352 353 355 355 356 357 356 355 354 353 353 354 354 354 354
321 321 321 321 322 322 322 323 323 323 324 325 326 326 326 327 328 328 328 330 332 333 333 333 333 332 331 332 332 332 331 333 333 333 337 341 342 343 342 340 338 338 338 338 338 340 343 345 346 348 350 352 355 356 357 357 356 354 353 353 353 353 353
321 321 321 322 322 321 321 322 322 322 322 323 324 325 325 327 328 328 328 329 330 331 332 332 332 332 332 332 331 330 330 331 331 331 333 336 340 343 343 341 340 342 343 343 343 342 343 343 343 343 344 346 350 353 353 355 357 358 357 357 356 354 353
321 321 321 321 321 321 321 321 320 321 322 322 323 323 324 325 326 326 327 328 328 327 329 330 331 331 332 331 329 328 329 330 330 329 330 333 336 338 337 337 339 342 344 345 345 345 345 345 346 346 346 347 349 351 352 354 356 357 357 358 358 358 357
320 320 320 320 320 320 320 319 319 320 321 321 321 321 322 323 324 324 325 327 326 326 327 327 328 330 331 330 329 329 329 328 328 329 331 332 332 332 333 335 338 341 343 345 346 346 347 347 347 346 345 345 346 347 349 351 353 354 355 355 357 358 358
319 319 319 319 319 319 318 318 319 319 320 320 320 320 321 321 322 323 324 325 325 326 327 326 326 329 331 330 329 329 327 326 327 330 331 331 330 331 332 333 334 335 338 344 347 348 346 344 342 339 338 338 339 339 338 339 341 347 352 353 354 356 358
318 318 319 318 318 318 318 318 318 318 319 320 319 320 321 321 321 322 323 323 323 325 325 326 326 327 329 329 329 329 327 326 328 330 330 329 330 330 330 330 331 332 336 341 343 342 341 340 339 338 337 337 336 335 334 331 333 340 347 350 351 352 354
317 317 317 317 317 317 317 317 318 318 319 319 319 319 320 320 320 321 322 322 323 323 324 325 325 326 327 328 328 328 326 326 328 330 330 329 329 329 329 330 332 333 334 335 334 333 335 338 338 337 337 337 336 335 335 334 334 337 340 344 348 351 352
317 316 316 316 316 317 317 317 317 318 318 319 319 319 319 320 320 320 320 321 322 323 323 324 325 326 326 326 327 327 326 325 327 329 329 328 329 329 329 330 331 332 333 332 331 330 332 334 334 334 334 335 335 335 335 334 334 335 337 339 344 347 347
316 315 315 316 316 316 317 318 318 318 318 318 318 319 319 320 321 321 321 321 321 322 323 323 324 325 325 325 326 327 325 325 327 328 327 327 328 327 327 329 330 330 330 330 330 331 331 331 331 331 331 332 334 334 334 333 333 335 335 335 337 339 340
315 315 315 315 316 316 316 317 317 317 318 318 318 318 318 318 320 322 323 323 322 322 322 323 324 325 325 325 326 326 325 326 327 326 325 325 324 323 325 327 328 328 328 329 329 330 330 330 330 330 329 330 331 332 333 333 333 334 334 333 334 335 336
314 315 315 315 315 316 316 317 317 317 317 317 317 317 317 318 320 322 323 324 323 323 323 324 324 324 325 326 327 326 325 325 325 324 324 324 323 322 323 325 326 327 328 328 328 328 329 330 330 330 329 329 329 330 331 333 334 334 333 333 334 335 337
314 314 314 314 315 316 317 317 316 316 316 317 317 316 316 318 320 321 321 322 322 323 324 325 325 325 326 327 327 326 325 324 324 324 324 324 323 324 324 325 325 326 326 326 326 326 327 327 327 329 330 329 330 331 332 334 335 335 334 333 334 335 337
313 313 314 314 316 316 316 316 316 316 316 316 316 315 315 317 318 319 319 320 320 321 323 324 325 325 326 326 325 325 324 324 323 323 323 324 324 324 324 324 325 325 324 323 322 322 323 323 324 328 330 330 331 332 333 333 334 334 334 333 333 334 335

ECMWFFLT1_925_thetae_123.txt.gz
Theta_e
358 357 362 366 355 342 339 340 342 345 346 345 346 347 348 348 349 350 351 351 351 351 350 350 348 350 352 352 351 351 351 350 351 351 352 354 354 354 353 352 353 354 354 352 351 353 354 354 355 355 356 355 351 349 351 354 353 352 353 354 356 356 355
357 356 357 362 361 352 342 338 340 343 345 346 346 346 348 349 349 350 350 351 351 350 350 349 349 349 351 352 352 351 351 350 352 352 353 354 355 355 354 353 353 353 353 353 352 352 353 354 355 355 356 356 353 350 352 356 356 355 354 354 355 356 356
357 357 356 359 362 359 351 344 341 341 343 346 346 346 348 349 349 349 349 351 351 350 350 349 349 349 349 351 352 351 351 351 353 354 355 355 355 355 355 353 352 352 352 353 352 353 353 354 355 355 355 356 354 352 354 356 357 357 356 354 355 356 356
357 357 355 355 356 356 353 349 347 345 342 343 345 346 348 349 349 349 349 350 351 350 350 350 350 350 348 349 351 351 351 351 353 354 355 354 353 354 355 352 350 351 352 352 353 353 354 354 355 355 355 354 354 353 355 357 357 357 357 356 355 357 357
355 354 353 353 353 354 354 351 350 351 347 343 343 345 348 349 349 350 350 350 351 350 350 350 350 351 349 349 350 350 351 351 352 354 354 353 353 354 354 353 351 352 352 352 353 353 354 354 354 355 354 353 353 353 354 356 357 357 357 356 357 357 358
351 351 352 353 352 351 351 351 351 352 351 347 344 344 347 349 350 350 350 351 351 351 351 352 351 351 351 350 349 349 350 350 351 352 353 353 353 354 354 354 353 353 352 353 354 355 354 354 354 354 354 354 354 353 353 355 356 356 357 357 357 358 358
350 348 349 350 349 347 347 349 351 353 352 350 348 346 346 349 351 351 351 351 352 351 352 353 352 352 351 351 350 350 350 349 349 351 353 352 353 355 355 354 354 354 354 355 355 356 356 356 355 354 355 355 354 354 354 353 355 356 357 357 357 357 357
348 347 347 347 346 345 345 346 349 352 352 350 350 350 349 350 352 352 352 352 352 352 352 353 354 353 353 353 353 352 351 350 348 349 351 352 352 354 355 355 355 355 355 356 356 356 357 357 356 356 355 355 355 355 354 354 354 355 356 357 356 355 355
345 345 345 344 344 344 344 345 346 348 350 351 351 351 350 351 352 353 353 353 353 354 353 353 355 355 355 354 354 354 353 352 351 351 351 351 351 353 354 355 355 355 355 356 356 356 356 357 357 357 356 356 356 355 354 354 354 355 356 356 356 355 353
343 343 342 342 343 343 343 343 344 345 348 350 351 351 350 351 352 353 353 353 354 354 354 354 355 356 356 356 355 354 354 354 354 354 353 353 351 351 353 354 355 355 355 356 356 356 356 356 356 357 356 356 356 355 355 355 355 355 356 356 357 356 355
342 342 341 342 343 343 343 343 343 344 346 349 350 350 349 350 351 352 352 352 353 352 352 353 355 356 357 357 357 356 356 355 355 355 355 354 352 351 352 353 354 354 355 354 355 355 355 355 355 354 355 356 355 355 354 355 355 355 356 356 356 356 356
339 339 339 341 342 343 342 343 343 344 345 347 349 349 349 349 350 350 350 351 352 351 351 351 353 355 356 358 358 358 358 357 356 356 355 354 354 353 352 353 354 354 354 353 354 354 354 354 353 352 353 355 355 354 354 354 355 355 355 356 356 355 356
337 337 338 339 341 341 342 343 343 344 344 346 347 347 348 349 349 348 347 348 349 351 352 352 352 352 354 356 356 357 357 358 358 357 356 356 356 355 354 354 354 355 354 353 353 354 354 353 353 352 352 353 353 353 354 354 354 355 354 355 355 355 355
336 336 337 338 339 340 342 342 343 343 343 344 346 347 347 348 348 349 348 348 348 348 350 351 351 351 352 353 354 354 355 356 357 356 356 356 356 356 356 355 355 355 354 355 354 354 354 353 353 352 352 351 352 352 353 353 354 354 354 354 354 354 354
335 335 336 337 338 339 340 341 342 343 343 344 345 346 346 347 348 349 350 351 350 350 350 350 350 350 351 352 352 352 352 352 353 353 353 354 354 354 355 354 354 354 353 353 353 352 352 352 352 353 351 351 351 351 352 352 353 353 353 353 354 353 354
334 334 334 334 334 335 335 336 338 340 342 343 344 345 344 345 347 348 350 351 352 352 352 351 352 351 351 351 351 351 351 350 350 351 351 353 353 353 353 353 353 353 352 351 349 349 349 350 350 351 351 351 351 351 352 352 352 351 352 352 352 353 353
332 332 332 331 331 331 331 333 334 337 340 342 343 344 343 343 345 345 346 348 349 351 352 352 352 352 352 352 351 351 351 350 350 351 351 352 352 353 353 353 353 352 352 351 350 348 348 348 349 350 350 350 350 350 350 351 351 350 350 351 351 352 353
330 330 330 330 331 331 330 332 334 336 338 340 341 341 340 340 341 341 342 344 345 347 349 349 350 351 351 351 351 351 350 350 350 350 350 350 351 352 352 351 350 350 350 350 349 348 347 347 348 348 349 349 349 348 348 349 349 350 350 350 351 351 352
328 328 329 329 330 330 330 331 333 334 335 336 337 337 336 337 338 338 340 342 342 343 344 344 344 344 346 347 347 348 349 350 350 350 351 351 351 350 350 348 349 349 348 349 349 348 348 348 348 348 348 347 347 347 347 348 349 349 350 351 351 351 352
326 327 327 327 328 328 329 330 332 333 333 334 334 333 333 334 334 335 337 338 339 339 340 340 340 340 340 340 340 340 342 344 346 346 348 349 349 350 349 349 350 349 349 350 350 349 350 350 350 351 350 349 347 347 347 348 349 350 350 350 350 351 352
326 326 326 327 328 328 329 330 330 331 331 332 332 331 331 331 331 332 333 334 334 335 335 336 337 338 339 340 339 339 338 339 340 341 342 344 347 348 347 346 347 348 349 349 349 350 350 350 351 352 352 352 351 349 348 348 349 350 351 351 351 351 351
325 325 326 327 327 327 327 327 328 328 329 330 331 331 331 330 329 329 329 330 331 332 332 332 333 334 335 335 336 337 339 339 339 338 339 340 343 343 342 341 340 341 342 343 343 345 347 347 347 347 347 349 351 352 352 352 351 351 351 352 353 352 352
323 324 325 325 325 325 326 326 327 327 328 330 331 331 331 331 330 329 329 329 329 329 329 329 329 330 331 331 330 331 335 338 339 338 339 339 340 340 340 340 339 338 338 338 338 340 342 343 343 344 344 345 348 350 351 352 353 353 353 354 354 354 353
323 324 324 324 325 325 325 326 326 326 328 329 329 331 332 332 332 331 331 331 330 329 328 328 327 327 328 329 329 329 330 335 338 340 341 342 342 342 341 342 342 342 342 342 342 342 342 342 342 342 342 343 345 349 350 351 352 353 354 355 355 355 355
323 323 323 323 323 324 325 325 326 326 327 327 327 328 330 330 330 329 329 329 329 330 330 330 329 328 327 327 326 327 329 331 335 337 338 339 339 339 338 339 341 343 344 346 345 343 340 339 338 336 335 336 338 342 345 345 344 345 348 351 353 354 356
321 321 322 322 322 322 323 324 324 324 324 324 324 326 327 327 327 326 326 326 327 327 328 329 330 329 327 326 324 325 329 331 331 332 332 333 334 335 337 339 341 343 343 342 342 340 338 337 335 332 331 332 333 334 336 336 336 337 342 346 349 351 352
320 321 321 321 321 321 321 322 322 322 322 322 323 324 325 325 324 324 324 324 324 325 325 327 329 330 328 327 325 324 327 330 330 330 330 331 333 335 336 336 337 337 335 332 331 332 333 332 331 330 329 330 330 330 331 332 333 335 340 344 345 348 350
320 320 320 320 320 320 320 320 320 320 320 321 321 322 323 323 323 322 322 322 322 323 323 324 327 329 329 328 326 325 326 328 329 329 329 330 331 332 332 331 331 330 328 327 327 328 328 328 329 329 328 328 327 327 328 330 331 335 339 340 339 340 343
319 319 319 319 319 319 319 319 319 320 320 320 320 321 321 321 321 321 322 322 321 322 323 323 325 327 328 328 327 325 325 326 328 328 328 328 327 328 328 328 328 327 326 326 327 327 328 328 328 328 328 327 327 327 328 329 330 333 335 335 333 334 336
317 318 318 319 319 319 319 319 319 319 319 319 320 320 320 320 321 321 321 321 321 322 322 323 323 325 326 327 327 325 324 325 327 327 326 325 324 323 322 323 325 326 326 326 326 326 325 323 323 324 324 324 325 327 328 329 331 331 332 333 333 333 333
316 317 318 318 318 318 318 318 318 318 318 319 319 320 320 320 321 321 322 322 321 321 322 322 323 323 324 325 326 325 324 324 326 326 326 325 323 321 320 322 324 326 326 326 325 323 320 317 316 317 319 320 323 326 328 329 331 331 331 331 332 333 333
316 316 317 317 318 318 318 318 317 317 317 318 319 320 321 321 321 322 322 322 321 321 322 322 323 323 324 324 325 325 325 325 326 326 325 324 323 321 321 322 324 325 325 324 322 320 317 316 317 319 321 322 324 326 328 329 330 330 329 329 330 332 332
315 316 316 317 317 317 317 317 316 315 316 317 319 320 321 321 321 321 322 322 322 322 323 323 324 324 324 324 325 325 326 326 325 325 324 323 322 321 321 321 323 323 323 321 319 318 317 318 320 322 323 324 325 326 328 329 329 329 328 329 329 330 330
315 316 317 317 317 317 316 316 315 315 316 318 319 319 320 320 320 320 322 322 323 323 324 324 324 324 324 324 324 324 325 324 324 323 323 322 322 322 322 322 322 321 320 319 318 317 318 319 321 322 322 322 324 325 327 327 327 327 328 328 328 327 327
315 316 317 317 317 316 316 315 314 314 316 317 318 318 318 318 318 319 320 321 321 323 324 324 324 324 324 324 323 323 323 323 323 323 323 323 323 323 322 321 321 320 319 318 317 318 318 319 320 321 322 323 324 325 326 326 325 326 327 326 325 324 323
315 316 316 316 316 316 315 315 314 314 315 316 317 317 317 317 317 317 318 318 319 320 321 321 323 323 322 322 323 322 322 321 321 321 321 321 321 321 321 320 319 319 318 318 317 318 318 319 319 320 322 324 325 324 324 324 323 324 324 323 322 322 322
315 316 316 316 316 315 315 315 314 314 315 315 315 316 316 315 315 315 316 316 316 317 318 319 320 320 320 320 320 320 320 320 319 319 319 319 319 319 319 319 319 318 318 318 317 317 317 318 318 320 322 324 325 324 322 321 322 321 321 321 321 321 321
315 316 316 315 315 315 315 315 314 314 315 315 314 314 314 314 314 314 315 314 314 314 315 316 317 318 316 316 316 317 317 317 317 317 317 317 317 317 317 318 318 318 317 317 317 317 317 318 319 319 320 322 324 324 321 320 320 320 319 320 320 319 320